GEFSMW_prec_meanprecacc_102.txt.gz
Total_Precipitation_Accumulation
1.58 1.82 2.14 2.52 2.71 2.79 2.73 2.76 2.73 2.32 1.74 1.29 0.90 0.70 0.62 0.49 0.36 0.28 0.30 0.32 0.31 0.35 0.41 0.33 0.35 0.33 0.29 0.30 0.32 0.36 0.37 0.35 0.34 0.40 0.44 0.38 0.35 0.35 0.31 0.33 0.38 0.44 0.53
1.14 1.25 1.43 1.72 1.77 1.88 1.98 1.95 1.95 1.67 1.22 0.99 0.76 0.66 0.58 0.44 0.32 0.25 0.24 0.21 0.20 0.23 0.29 0.36 0.28 0.29 0.29 0.29 0.28 0.32 0.30 0.27 0.28 0.35 0.39 0.36 0.39 0.37 0.22 0.28 0.31 0.35 0.49
0.74 0.75 0.84 1.02 1.27 1.64 1.66 1.46 1.42 1.30 1.05 0.90 0.75 0.68 0.61 0.48 0.36 0.29 0.22 0.19 0.16 0.17 0.20 0.25 0.27 0.30 0.26 0.30 0.35 0.32 0.31 0.24 0.22 0.27 0.35 0.35 0.35 0.37 0.35 0.32 0.32 0.35 0.49
0.41 0.51 0.57 0.67 0.87 1.11 1.26 1.28 1.24 1.20 0.98 0.80 0.65 0.54 0.45 0.35 0.27 0.25 0.21 0.18 0.16 0.15 0.13 0.13 0.18 0.25 0.27 0.35 0.27 0.30 0.32 0.29 0.22 0.22 0.24 0.24 0.26 0.31 0.36 0.35 0.31 0.34 0.41
0.19 0.32 0.40 0.50 0.59 0.70 0.89 1.07 1.23 1.32 1.04 0.80 0.64 0.56 0.49 0.38 0.30 0.26 0.26 0.21 0.21 0.19 0.17 0.16 0.15 0.15 0.20 0.27 0.30 0.36 0.33 0.34 0.30 0.23 0.21 0.22 0.20 0.20 0.20 0.27 0.30 0.29 0.22
0.12 0.20 0.26 0.35 0.47 0.55 0.63 0.76 0.96 1.15 1.05 0.84 0.67 0.61 0.57 0.49 0.39 0.30 0.26 0.26 0.28 0.29 0.27 0.24 0.23 0.23 0.20 0.18 0.20 0.25 0.31 0.37 0.38 0.29 0.23 0.25 0.23 0.17 0.17 0.14 0.15 0.22 0.16
0.07 0.11 0.16 0.20 0.32 0.39 0.40 0.45 0.65 0.80 0.80 0.71 0.62 0.60 0.66 0.64 0.56 0.45 0.36 0.32 0.30 0.31 0.31 0.29 0.28 0.30 0.29 0.26 0.21 0.18 0.22 0.30 0.35 0.33 0.29 0.23 0.18 0.18 0.21 0.17 0.11 0.11 0.11
0.05 0.05 0.08 0.13 0.20 0.25 0.30 0.34 0.46 0.57 0.61 0.55 0.53 0.52 0.51 0.47 0.51 0.54 0.45 0.40 0.38 0.34 0.30 0.29 0.27 0.29 0.32 0.33 0.30 0.24 0.22 0.24 0.28 0.30 0.36 0.30 0.15 0.16 0.21 0.21 0.21 0.19 0.15
0.07 0.04 0.04 0.09 0.12 0.16 0.21 0.23 0.33 0.42 0.45 0.45 0.43 0.41 0.41 0.36 0.37 0.35 0.31 0.30 0.39 0.39 0.35 0.30 0.28 0.29 0.31 0.34 0.35 0.33 0.32 0.29 0.26 0.30 0.37 0.35 0.25 0.17 0.16 0.21 0.26 0.30 0.25
0.06 0.05 0.06 0.08 0.09 0.14 0.19 0.22 0.28 0.35 0.38 0.39 0.36 0.34 0.41 0.40 0.42 0.35 0.29 0.25 0.27 0.29 0.32 0.33 0.30 0.28 0.30 0.34 0.38 0.41 0.46 0.47 0.42 0.37 0.39 0.40 0.37 0.34 0.27 0.24 0.27 0.31 0.32
0.05 0.06 0.08 0.07 0.07 0.11 0.16 0.17 0.25 0.32 0.34 0.38 0.37 0.39 0.38 0.36 0.38 0.39 0.36 0.31 0.28 0.27 0.27 0.28 0.27 0.25 0.25 0.28 0.33 0.36 0.47 0.59 0.67 0.63 0.55 0.49 0.50 0.48 0.41 0.38 0.35 0.34 0.37
0.07 0.07 0.07 0.06 0.05 0.10 0.14 0.15 0.19 0.23 0.24 0.32 0.40 0.39 0.40 0.45 0.42 0.37 0.39 0.38 0.38 0.38 0.37 0.33 0.31 0.27 0.23 0.26 0.28 0.30 0.35 0.49 0.65 0.80 0.82 0.72 0.64 0.59 0.51 0.46 0.43 0.41 0.46
0.09 0.09 0.10 0.13 0.09 0.11 0.15 0.18 0.22 0.25 0.26 0.33 0.41 0.47 0.49 0.54 0.54 0.50 0.50 0.50 0.48 0.45 0.46 0.44 0.42 0.39 0.36 0.34 0.32 0.32 0.31 0.35 0.44 0.60 0.80 0.88 0.84 0.69 0.63 0.57 0.51 0.48 0.47
0.11 0.12 0.15 0.17 0.14 0.13 0.18 0.21 0.26 0.30 0.36 0.48 0.58 0.59 0.63 0.69 0.71 0.63 0.61 0.61 0.61 0.60 0.60 0.62 0.58 0.51 0.46 0.43 0.44 0.43 0.42 0.43 0.45 0.47 0.55 0.69 0.84 0.81 0.75 0.67 0.62 0.60 0.62
0.16 0.20 0.27 0.27 0.26 0.24 0.25 0.29 0.39 0.47 0.61 0.76 0.78 0.74 0.72 0.76 0.78 0.80 0.80 0.81 0.86 0.86 0.88 0.83 0.76 0.72 0.65 0.55 0.60 0.67 0.65 0.65 0.55 0.48 0.45 0.46 0.59 0.71 0.77 0.70 0.66 0.68 0.69
0.24 0.26 0.35 0.42 0.41 0.39 0.41 0.50 0.61 0.74 0.95 1.14 1.13 1.10 1.08 1.07 1.07 1.05 1.05 1.09 1.08 1.06 1.03 0.98 0.95 0.91 0.76 0.74 0.71 0.67 0.66 0.69 0.68 0.60 0.56 0.50 0.47 0.52 0.61 0.68 0.70 0.70 0.69
0.36 0.35 0.42 0.52 0.58 0.57 0.55 0.64 0.74 0.87 1.00 1.08 1.04 1.05 1.09 1.12 1.13 1.13 1.15 1.11 1.09 1.05 1.03 1.05 1.05 1.00 0.94 0.81 0.65 0.54 0.55 0.59 0.64 0.69 0.68 0.52 0.41 0.46 0.52 0.61 0.63 0.61 0.57
0.37 0.41 0.49 0.51 0.53 0.56 0.59 0.68 0.74 0.76 0.87 0.90 0.85 0.84 0.84 0.85 0.87 0.92 0.95 0.98 1.01 1.01 0.99 0.94 0.84 0.77 0.68 0.59 0.51 0.47 0.52 0.55 0.53 0.62 0.69 0.64 0.55 0.51 0.54 0.53 0.50 0.48 0.47
0.42 0.45 0.46 0.45 0.47 0.48 0.52 0.55 0.57 0.61 0.69 0.72 0.73 0.67 0.66 0.68 0.70 0.74 0.78 0.86 0.88 0.80 0.72 0.65 0.63 0.64 0.61 0.58 0.48 0.44 0.50 0.55 0.51 0.53 0.57 0.61 0.57 0.49 0.41 0.43 0.39 0.37 0.38
0.34 0.43 0.50 0.45 0.41 0.41 0.44 0.46 0.46 0.49 0.55 0.59 0.63 0.61 0.61 0.62 0.62 0.63 0.63 0.62 0.62 0.60 0.57 0.51 0.52 0.56 0.59 0.58 0.44 0.41 0.48 0.55 0.54 0.57 0.62 0.66 0.59 0.46 0.34 0.39 0.43 0.36 0.32
0.31 0.36 0.43 0.49 0.45 0.43 0.44 0.47 0.46 0.45 0.44 0.46 0.50 0.52 0.51 0.51 0.51 0.51 0.50 0.50 0.50 0.49 0.45 0.42 0.43 0.48 0.48 0.44 0.32 0.29 0.37 0.44 0.48 0.47 0.50 0.60 0.54 0.42 0.30 0.32 0.37 0.32 0.33
0.21 0.27 0.33 0.39 0.44 0.48 0.48 0.47 0.45 0.44 0.41 0.42 0.44 0.44 0.45 0.46 0.45 0.47 0.45 0.42 0.40 0.38 0.36 0.36 0.37 0.42 0.46 0.37 0.27 0.18 0.21 0.31 0.39 0.49 0.53 0.60 0.58 0.44 0.36 0.31 0.30 0.25 0.23
0.16 0.17 0.22 0.28 0.34 0.43 0.48 0.49 0.46 0.44 0.45 0.46 0.44 0.41 0.38 0.42 0.46 0.47 0.45 0.44 0.43 0.42 0.37 0.34 0.30 0.31 0.39 0.37 0.20 0.14 0.13 0.21 0.34 0.55 0.70 0.74 0.70 0.60 0.49 0.43 0.40 0.31 0.26
0.16 0.17 0.20 0.23 0.27 0.31 0.37 0.44 0.45 0.45 0.46 0.45 0.41 0.38 0.37 0.35 0.37 0.43 0.46 0.45 0.44 0.41 0.36 0.33 0.32 0.32 0.36 0.37 0.32 0.25 0.17 0.17 0.26 0.47 0.66 0.79 0.85 0.81 0.70 0.61 0.55 0.42 0.35
0.21 0.21 0.21 0.22 0.24 0.26 0.29 0.35 0.40 0.41 0.42 0.42 0.39 0.35 0.31 0.29 0.31 0.34 0.34 0.30 0.31 0.27 0.25 0.25 0.27 0.29 0.30 0.25 0.19 0.19 0.19 0.19 0.23 0.39 0.66 0.87 1.01 1.05 1.03 0.91 0.82 0.70 0.58
0.28 0.27 0.26 0.24 0.23 0.25 0.26 0.29 0.35 0.42 0.47 0.45 0.39 0.33 0.28 0.27 0.27 0.28 0.27 0.25 0.21 0.19 0.19 0.21 0.18 0.14 0.15 0.13 0.10 0.09 0.10 0.12 0.18 0.37 0.63 0.86 1.04 1.11 1.23 1.24 1.16 0.99 0.84

GEFSMW_prec_meanprecacc_108.txt.gz
Total_Precipitation_Accumulation
1.63 1.89 2.23 2.60 2.82 2.96 3.00 3.12 3.09 2.66 2.07 1.57 1.11 0.84 0.72 0.60 0.45 0.34 0.34 0.36 0.35 0.37 0.44 0.36 0.37 0.34 0.30 0.31 0.34 0.38 0.38 0.36 0.35 0.42 0.46 0.40 0.37 0.38 0.33 0.36 0.42 0.48 0.56
1.17 1.29 1.49 1.79 1.88 2.06 2.28 2.42 2.38 2.05 1.52 1.25 0.99 0.85 0.75 0.61 0.47 0.35 0.31 0.28 0.27 0.29 0.34 0.40 0.31 0.31 0.31 0.31 0.30 0.33 0.31 0.27 0.28 0.36 0.40 0.38 0.40 0.39 0.23 0.30 0.35 0.39 0.51
0.77 0.80 0.90 1.09 1.37 1.77 1.84 1.74 1.74 1.62 1.32 1.16 0.99 0.88 0.80 0.67 0.53 0.41 0.32 0.25 0.22 0.23 0.26 0.29 0.30 0.33 0.28 0.31 0.36 0.34 0.32 0.25 0.22 0.27 0.35 0.35 0.35 0.38 0.35 0.32 0.33 0.37 0.50
0.44 0.55 0.61 0.72 0.94 1.20 1.40 1.52 1.52 1.46 1.21 1.01 0.82 0.67 0.55 0.45 0.37 0.32 0.31 0.26 0.24 0.20 0.18 0.17 0.21 0.28 0.29 0.36 0.28 0.31 0.34 0.30 0.23 0.22 0.24 0.24 0.26 0.31 0.36 0.36 0.32 0.35 0.41
0.21 0.34 0.44 0.53 0.63 0.79 1.06 1.27 1.45 1.53 1.23 0.96 0.78 0.67 0.57 0.47 0.40 0.34 0.34 0.28 0.27 0.25 0.21 0.19 0.18 0.19 0.23 0.29 0.31 0.37 0.35 0.35 0.30 0.24 0.21 0.22 0.20 0.20 0.20 0.27 0.31 0.29 0.22
0.13 0.22 0.28 0.38 0.52 0.63 0.77 0.92 1.12 1.31 1.21 0.99 0.80 0.70 0.64 0.56 0.47 0.36 0.31 0.30 0.32 0.33 0.31 0.28 0.28 0.27 0.24 0.21 0.22 0.26 0.33 0.38 0.39 0.30 0.23 0.25 0.23 0.17 0.17 0.14 0.16 0.22 0.17
0.08 0.12 0.17 0.22 0.37 0.46 0.49 0.55 0.74 0.90 0.91 0.85 0.77 0.71 0.74 0.71 0.62 0.49 0.40 0.36 0.33 0.34 0.34 0.32 0.32 0.34 0.33 0.29 0.23 0.19 0.23 0.31 0.36 0.34 0.29 0.24 0.18 0.19 0.21 0.18 0.12 0.12 0.11
0.06 0.06 0.09 0.16 0.23 0.29 0.34 0.38 0.51 0.64 0.71 0.67 0.67 0.64 0.61 0.56 0.58 0.60 0.50 0.44 0.42 0.38 0.34 0.32 0.30 0.32 0.35 0.36 0.32 0.26 0.24 0.25 0.29 0.31 0.36 0.31 0.16 0.16 0.21 0.22 0.22 0.19 0.15
0.08 0.06 0.07 0.12 0.15 0.19 0.23 0.27 0.38 0.48 0.53 0.54 0.55 0.53 0.52 0.47 0.46 0.43 0.38 0.35 0.44 0.44 0.38 0.33 0.30 0.31 0.33 0.36 0.37 0.35 0.33 0.30 0.27 0.31 0.38 0.36 0.26 0.18 0.16 0.21 0.27 0.30 0.25
0.08 0.09 0.10 0.11 0.13 0.17 0.22 0.25 0.31 0.39 0.43 0.47 0.46 0.46 0.52 0.52 0.53 0.46 0.40 0.33 0.32 0.34 0.37 0.36 0.31 0.29 0.31 0.36 0.40 0.43 0.47 0.48 0.43 0.38 0.40 0.40 0.38 0.34 0.27 0.25 0.28 0.32 0.32
0.07 0.09 0.10 0.09 0.11 0.15 0.19 0.19 0.28 0.35 0.39 0.45 0.47 0.49 0.50 0.50 0.52 0.54 0.50 0.41 0.36 0.34 0.33 0.33 0.30 0.27 0.26 0.30 0.35 0.38 0.48 0.60 0.68 0.64 0.55 0.50 0.50 0.49 0.42 0.38 0.35 0.34 0.38
0.07 0.09 0.10 0.09 0.08 0.12 0.16 0.17 0.21 0.25 0.28 0.37 0.47 0.47 0.49 0.55 0.52 0.48 0.53 0.52 0.49 0.48 0.45 0.40 0.36 0.32 0.27 0.28 0.31 0.33 0.38 0.50 0.67 0.81 0.83 0.72 0.65 0.60 0.51 0.46 0.43 0.42 0.46
0.10 0.10 0.12 0.15 0.11 0.12 0.16 0.20 0.23 0.26 0.29 0.37 0.46 0.53 0.56 0.63 0.64 0.59 0.59 0.60 0.57 0.55 0.58 0.56 0.52 0.48 0.43 0.39 0.38 0.37 0.35 0.37 0.47 0.63 0.82 0.90 0.85 0.71 0.65 0.57 0.51 0.49 0.47
0.12 0.13 0.16 0.19 0.15 0.14 0.19 0.22 0.28 0.32 0.40 0.52 0.62 0.65 0.71 0.79 0.81 0.73 0.71 0.70 0.72 0.70 0.72 0.75 0.68 0.59 0.53 0.49 0.50 0.49 0.47 0.48 0.50 0.52 0.59 0.72 0.87 0.84 0.77 0.69 0.63 0.61 0.62
0.17 0.21 0.28 0.29 0.28 0.27 0.27 0.30 0.41 0.50 0.64 0.81 0.84 0.81 0.82 0.87 0.91 0.93 0.94 0.96 1.00 1.00 1.00 0.94 0.85 0.79 0.73 0.63 0.68 0.75 0.74 0.75 0.65 0.56 0.51 0.51 0.61 0.73 0.78 0.71 0.67 0.69 0.70
0.25 0.27 0.37 0.44 0.45 0.43 0.45 0.54 0.65 0.79 0.99 1.19 1.20 1.21 1.21 1.22 1.24 1.23 1.21 1.22 1.21 1.21 1.16 1.09 1.06 1.01 0.88 0.87 0.84 0.80 0.79 0.83 0.80 0.69 0.61 0.53 0.49 0.53 0.63 0.69 0.71 0.71 0.69
0.37 0.36 0.45 0.57 0.64 0.63 0.62 0.70 0.80 0.94 1.07 1.17 1.15 1.17 1.23 1.27 1.28 1.29 1.30 1.25 1.21 1.18 1.14 1.15 1.14 1.08 1.02 0.90 0.73 0.61 0.63 0.67 0.71 0.74 0.72 0.54 0.43 0.48 0.54 0.62 0.64 0.61 0.57
0.38 0.43 0.53 0.59 0.63 0.68 0.70 0.78 0.84 0.85 0.96 1.00 0.96 0.96 0.99 0.99 1.00 1.06 1.10 1.09 1.10 1.09 1.06 1.01 0.90 0.82 0.72 0.63 0.54 0.50 0.54 0.57 0.56 0.64 0.71 0.66 0.56 0.52 0.55 0.54 0.51 0.49 0.47
0.42 0.47 0.54 0.54 0.57 0.61 0.66 0.66 0.71 0.74 0.79 0.83 0.82 0.78 0.79 0.79 0.81 0.86 0.91 0.96 0.96 0.88 0.78 0.70 0.68 0.67 0.64 0.61 0.50 0.45 0.51 0.57 0.53 0.54 0.58 0.62 0.58 0.50 0.42 0.44 0.40 0.38 0.38
0.35 0.45 0.56 0.55 0.52 0.52 0.54 0.56 0.59 0.63 0.68 0.75 0.80 0.77 0.76 0.76 0.75 0.77 0.78 0.75 0.74 0.70 0.65 0.58 0.57 0.59 0.62 0.61 0.46 0.42 0.49 0.56 0.55 0.58 0.63 0.67 0.60 0.47 0.34 0.39 0.43 0.36 0.32
0.32 0.38 0.48 0.58 0.56 0.56 0.57 0.60 0.58 0.58 0.59 0.63 0.68 0.68 0.67 0.67 0.66 0.66 0.65 0.64 0.64 0.61 0.55 0.49 0.49 0.52 0.51 0.46 0.33 0.30 0.38 0.45 0.49 0.48 0.50 0.60 0.55 0.42 0.30 0.32 0.37 0.32 0.33
0.23 0.30 0.38 0.47 0.54 0.59 0.63 0.64 0.60 0.57 0.55 0.59 0.60 0.58 0.59 0.59 0.58 0.59 0.57 0.55 0.53 0.50 0.45 0.43 0.43 0.47 0.49 0.39 0.29 0.19 0.22 0.32 0.40 0.50 0.53 0.61 0.58 0.44 0.36 0.31 0.30 0.25 0.23
0.17 0.19 0.26 0.35 0.41 0.52 0.61 0.66 0.64 0.62 0.62 0.63 0.63 0.59 0.56 0.58 0.61 0.62 0.62 0.60 0.56 0.54 0.49 0.44 0.37 0.36 0.42 0.40 0.22 0.16 0.15 0.22 0.35 0.55 0.70 0.74 0.70 0.60 0.49 0.43 0.40 0.31 0.26
0.17 0.19 0.24 0.30 0.33 0.39 0.48 0.57 0.62 0.66 0.67 0.64 0.59 0.56 0.55 0.55 0.58 0.65 0.67 0.65 0.61 0.56 0.48 0.44 0.41 0.40 0.43 0.43 0.36 0.28 0.20 0.20 0.28 0.48 0.66 0.79 0.85 0.81 0.70 0.61 0.55 0.42 0.35
0.23 0.24 0.25 0.26 0.29 0.33 0.38 0.46 0.53 0.58 0.59 0.60 0.58 0.54 0.50 0.49 0.50 0.53 0.54 0.48 0.48 0.43 0.39 0.37 0.38 0.39 0.39 0.31 0.23 0.21 0.21 0.21 0.24 0.39 0.66 0.87 1.01 1.05 1.03 0.91 0.82 0.70 0.58
0.31 0.30 0.31 0.30 0.29 0.32 0.36 0.38 0.45 0.55 0.62 0.62 0.56 0.51 0.46 0.44 0.44 0.43 0.43 0.40 0.34 0.31 0.30 0.31 0.28 0.25 0.24 0.20 0.15 0.13 0.14 0.15 0.20 0.38 0.64 0.87 1.04 1.11 1.23 1.24 1.16 0.99 0.84

GEFSMW_prec_meanprecacc_114.txt.gz
Total_Precipitation_Accumulation
1.64 1.90 2.25 2.62 2.85 3.02 3.06 3.20 3.22 2.79 2.20 1.69 1.19 0.91 0.78 0.65 0.50 0.38 0.38 0.42 0.40 0.44 0.51 0.41 0.42 0.39 0.35 0.39 0.41 0.46 0.47 0.44 0.42 0.49 0.54 0.45 0.39 0.40 0.38 0.39 0.45 0.51 0.61
1.18 1.30 1.50 1.81 1.90 2.10 2.33 2.52 2.57 2.27 1.69 1.37 1.09 0.94 0.83 0.68 0.54 0.41 0.36 0.34 0.33 0.35 0.39 0.46 0.36 0.35 0.36 0.37 0.37 0.41 0.39 0.33 0.35 0.44 0.48 0.45 0.45 0.41 0.24 0.33 0.38 0.42 0.55
0.77 0.81 0.90 1.10 1.39 1.80 1.89 1.83 1.89 1.85 1.53 1.30 1.13 1.00 0.90 0.75 0.60 0.47 0.37 0.29 0.28 0.30 0.32 0.34 0.34 0.36 0.31 0.36 0.44 0.41 0.39 0.32 0.27 0.32 0.40 0.41 0.40 0.41 0.37 0.35 0.35 0.41 0.55
0.44 0.56 0.62 0.73 0.95 1.22 1.43 1.58 1.61 1.57 1.32 1.12 0.95 0.80 0.64 0.52 0.42 0.38 0.37 0.33 0.30 0.27 0.24 0.22 0.26 0.32 0.32 0.41 0.33 0.35 0.39 0.37 0.28 0.26 0.27 0.26 0.28 0.34 0.40 0.39 0.34 0.37 0.45
0.21 0.34 0.44 0.54 0.65 0.82 1.09 1.33 1.55 1.65 1.33 1.04 0.86 0.76 0.64 0.53 0.47 0.42 0.44 0.38 0.36 0.32 0.26 0.23 0.24 0.24 0.26 0.32 0.34 0.41 0.38 0.38 0.34 0.26 0.23 0.23 0.21 0.21 0.23 0.32 0.35 0.33 0.26
0.13 0.22 0.29 0.40 0.55 0.66 0.80 0.99 1.21 1.40 1.29 1.08 0.88 0.79 0.72 0.63 0.53 0.43 0.40 0.38 0.39 0.38 0.35 0.32 0.32 0.32 0.27 0.24 0.26 0.30 0.37 0.42 0.43 0.34 0.25 0.27 0.24 0.19 0.19 0.16 0.19 0.26 0.19
0.08 0.12 0.17 0.23 0.38 0.47 0.51 0.60 0.81 0.97 0.99 0.93 0.85 0.78 0.81 0.78 0.68 0.57 0.47 0.42 0.38 0.38 0.38 0.36 0.37 0.38 0.37 0.32 0.27 0.23 0.27 0.35 0.40 0.38 0.32 0.25 0.19 0.20 0.22 0.19 0.13 0.14 0.13
0.06 0.07 0.09 0.16 0.24 0.30 0.36 0.43 0.55 0.68 0.74 0.73 0.73 0.70 0.68 0.63 0.65 0.67 0.57 0.50 0.46 0.41 0.38 0.36 0.34 0.35 0.38 0.39 0.36 0.30 0.28 0.29 0.32 0.34 0.39 0.33 0.17 0.17 0.22 0.23 0.23 0.22 0.18
0.08 0.06 0.08 0.12 0.15 0.19 0.25 0.30 0.41 0.52 0.56 0.58 0.61 0.60 0.61 0.56 0.55 0.53 0.49 0.43 0.49 0.48 0.43 0.37 0.35 0.36 0.37 0.39 0.40 0.39 0.37 0.34 0.30 0.33 0.40 0.38 0.27 0.19 0.17 0.22 0.28 0.33 0.29
0.08 0.09 0.11 0.12 0.13 0.17 0.23 0.26 0.33 0.41 0.46 0.50 0.50 0.51 0.61 0.62 0.64 0.57 0.50 0.42 0.39 0.38 0.40 0.40 0.37 0.34 0.37 0.40 0.43 0.47 0.52 0.52 0.46 0.40 0.42 0.43 0.39 0.35 0.27 0.25 0.28 0.33 0.35
0.07 0.09 0.10 0.10 0.11 0.16 0.19 0.20 0.29 0.37 0.42 0.48 0.51 0.54 0.57 0.61 0.66 0.66 0.62 0.54 0.47 0.41 0.38 0.39 0.36 0.32 0.32 0.35 0.38 0.42 0.53 0.65 0.72 0.66 0.58 0.53 0.52 0.50 0.43 0.39 0.36 0.36 0.39
0.08 0.09 0.10 0.09 0.08 0.13 0.16 0.18 0.22 0.27 0.29 0.39 0.51 0.51 0.56 0.64 0.63 0.61 0.68 0.67 0.63 0.58 0.53 0.48 0.44 0.38 0.32 0.33 0.35 0.38 0.43 0.57 0.73 0.87 0.88 0.76 0.67 0.63 0.54 0.49 0.46 0.45 0.49
0.10 0.10 0.12 0.16 0.12 0.13 0.16 0.20 0.24 0.28 0.31 0.39 0.49 0.57 0.61 0.69 0.72 0.70 0.71 0.74 0.72 0.68 0.68 0.65 0.61 0.56 0.50 0.46 0.45 0.44 0.43 0.46 0.55 0.70 0.88 0.94 0.89 0.76 0.69 0.62 0.55 0.53 0.51
0.12 0.13 0.16 0.19 0.16 0.15 0.20 0.23 0.29 0.34 0.42 0.54 0.64 0.68 0.75 0.84 0.87 0.81 0.81 0.81 0.82 0.81 0.82 0.85 0.77 0.67 0.61 0.58 0.59 0.58 0.57 0.58 0.58 0.60 0.66 0.79 0.93 0.89 0.81 0.73 0.68 0.65 0.67
0.17 0.21 0.28 0.29 0.29 0.28 0.28 0.31 0.42 0.52 0.67 0.83 0.87 0.85 0.87 0.92 0.98 1.01 1.03 1.06 1.11 1.10 1.10 1.04 0.96 0.89 0.82 0.74 0.80 0.88 0.86 0.86 0.75 0.66 0.61 0.60 0.69 0.79 0.82 0.74 0.70 0.72 0.73
0.25 0.27 0.37 0.45 0.46 0.44 0.46 0.55 0.66 0.82 1.02 1.23 1.26 1.28 1.29 1.30 1.34 1.34 1.32 1.36 1.36 1.34 1.26 1.19 1.17 1.12 0.99 1.00 0.96 0.91 0.90 0.96 0.94 0.83 0.73 0.63 0.57 0.59 0.66 0.72 0.73 0.73 0.71
0.37 0.36 0.45 0.58 0.65 0.64 0.63 0.72 0.82 0.99 1.16 1.25 1.23 1.24 1.31 1.37 1.39 1.39 1.40 1.36 1.35 1.32 1.24 1.25 1.27 1.22 1.17 1.03 0.84 0.71 0.71 0.76 0.80 0.83 0.79 0.60 0.47 0.52 0.56 0.65 0.66 0.64 0.59
0.38 0.44 0.54 0.59 0.64 0.69 0.71 0.80 0.86 0.88 1.03 1.09 1.09 1.08 1.09 1.11 1.14 1.21 1.22 1.21 1.22 1.21 1.17 1.13 1.03 0.96 0.86 0.76 0.64 0.58 0.61 0.64 0.62 0.70 0.77 0.71 0.61 0.55 0.57 0.56 0.52 0.51 0.49
0.43 0.48 0.55 0.55 0.59 0.62 0.67 0.68 0.72 0.76 0.83 0.87 0.89 0.86 0.89 0.92 0.97 1.03 1.11 1.16 1.12 1.02 0.92 0.85 0.82 0.80 0.78 0.76 0.60 0.53 0.57 0.62 0.58 0.59 0.62 0.65 0.60 0.52 0.43 0.44 0.41 0.39 0.39
0.36 0.46 0.57 0.56 0.53 0.53 0.56 0.57 0.61 0.65 0.71 0.79 0.86 0.84 0.84 0.86 0.88 0.92 0.95 0.93 0.90 0.84 0.79 0.74 0.71 0.72 0.73 0.72 0.55 0.48 0.54 0.59 0.58 0.60 0.64 0.68 0.60 0.47 0.35 0.39 0.43 0.37 0.32
0.32 0.39 0.49 0.59 0.57 0.57 0.58 0.62 0.60 0.60 0.62 0.69 0.75 0.75 0.74 0.75 0.76 0.78 0.79 0.81 0.83 0.79 0.72 0.65 0.63 0.65 0.63 0.57 0.41 0.36 0.42 0.49 0.51 0.50 0.52 0.61 0.56 0.43 0.31 0.33 0.38 0.33 0.34
0.23 0.31 0.39 0.48 0.55 0.60 0.64 0.66 0.61 0.59 0.59 0.67 0.69 0.66 0.65 0.66 0.66 0.66 0.67 0.68 0.70 0.67 0.62 0.59 0.59 0.62 0.62 0.48 0.36 0.25 0.27 0.36 0.44 0.54 0.56 0.62 0.60 0.46 0.37 0.32 0.31 0.26 0.24
0.17 0.20 0.26 0.36 0.43 0.54 0.62 0.68 0.67 0.65 0.65 0.69 0.70 0.65 0.62 0.65 0.68 0.71 0.72 0.72 0.70 0.68 0.62 0.57 0.48 0.46 0.51 0.48 0.30 0.21 0.19 0.27 0.40 0.61 0.76 0.79 0.74 0.62 0.51 0.44 0.41 0.32 0.27
0.17 0.19 0.26 0.32 0.35 0.41 0.50 0.59 0.65 0.70 0.72 0.70 0.65 0.61 0.60 0.61 0.66 0.75 0.79 0.79 0.77 0.72 0.64 0.58 0.52 0.49 0.51 0.51 0.46 0.38 0.31 0.31 0.39 0.58 0.75 0.86 0.91 0.85 0.73 0.64 0.58 0.44 0.37
0.23 0.25 0.28 0.30 0.32 0.36 0.41 0.49 0.57 0.63 0.65 0.66 0.63 0.60 0.57 0.58 0.61 0.65 0.67 0.63 0.63 0.59 0.54 0.49 0.48 0.50 0.51 0.46 0.39 0.36 0.35 0.33 0.36 0.49 0.74 0.93 1.06 1.10 1.07 0.95 0.84 0.72 0.60
0.32 0.32 0.34 0.34 0.32 0.35 0.39 0.41 0.48 0.60 0.67 0.68 0.63 0.58 0.54 0.54 0.54 0.55 0.56 0.56 0.49 0.46 0.42 0.41 0.38 0.36 0.37 0.35 0.29 0.26 0.26 0.26 0.31 0.47 0.72 0.93 1.10 1.17 1.27 1.27 1.18 1.01 0.85

GEFSMW_prec_meanprecacc_120.txt.gz
Total_Precipitation_Accumulation
1.66 1.93 2.29 2.67 2.89 3.06 3.10 3.26 3.31 2.89 2.32 1.83 1.34 1.05 0.90 0.74 0.55 0.42 0.42 0.46 0.44 0.49 0.55 0.47 0.51 0.43 0.40 0.42 0.44 0.52 0.55 0.53 0.49 0.59 0.66 0.54 0.44 0.46 0.42 0.43 0.48 0.53 0.65
1.20 1.33 1.52 1.83 1.93 2.13 2.38 2.59 2.67 2.38 1.78 1.49 1.22 1.11 0.97 0.77 0.59 0.46 0.43 0.38 0.37 0.40 0.42 0.51 0.41 0.39 0.40 0.40 0.40 0.47 0.47 0.42 0.41 0.51 0.63 0.62 0.62 0.54 0.29 0.37 0.44 0.45 0.60
0.79 0.83 0.93 1.12 1.40 1.84 1.94 1.89 1.99 1.98 1.65 1.45 1.29 1.16 1.06 0.86 0.69 0.54 0.45 0.36 0.33 0.35 0.37 0.38 0.39 0.44 0.34 0.40 0.48 0.46 0.45 0.42 0.36 0.37 0.49 0.57 0.58 0.54 0.46 0.40 0.40 0.45 0.60
0.50 0.60 0.68 0.78 0.97 1.27 1.50 1.67 1.76 1.72 1.48 1.31 1.11 0.92 0.75 0.63 0.52 0.47 0.45 0.42 0.38 0.33 0.30 0.28 0.33 0.40 0.38 0.49 0.38 0.40 0.45 0.44 0.36 0.32 0.30 0.31 0.37 0.45 0.54 0.50 0.40 0.43 0.50
0.23 0.36 0.52 0.64 0.68 0.87 1.21 1.52 1.72 1.82 1.53 1.21 0.98 0.86 0.74 0.65 0.57 0.51 0.55 0.48 0.44 0.39 0.32 0.31 0.32 0.32 0.33 0.39 0.40 0.50 0.45 0.45 0.40 0.31 0.26 0.27 0.25 0.25 0.30 0.45 0.47 0.42 0.31
0.13 0.23 0.30 0.42 0.56 0.69 0.89 1.09 1.30 1.49 1.40 1.19 1.00 0.89 0.83 0.77 0.65 0.53 0.49 0.45 0.46 0.46 0.42 0.39 0.40 0.39 0.34 0.32 0.32 0.38 0.43 0.50 0.52 0.40 0.29 0.30 0.27 0.21 0.21 0.23 0.27 0.35 0.26
0.08 0.12 0.18 0.24 0.39 0.49 0.55 0.65 0.88 1.07 1.09 1.05 0.96 0.86 0.90 0.89 0.80 0.67 0.58 0.53 0.46 0.45 0.45 0.43 0.45 0.45 0.45 0.39 0.35 0.31 0.35 0.43 0.48 0.43 0.36 0.28 0.21 0.22 0.23 0.21 0.18 0.20 0.20
0.07 0.08 0.11 0.17 0.25 0.32 0.39 0.48 0.63 0.78 0.83 0.82 0.83 0.80 0.75 0.69 0.74 0.78 0.67 0.59 0.54 0.48 0.45 0.44 0.41 0.43 0.45 0.45 0.45 0.35 0.33 0.36 0.39 0.39 0.44 0.36 0.18 0.19 0.24 0.25 0.26 0.28 0.27
0.10 0.09 0.14 0.18 0.16 0.20 0.26 0.33 0.46 0.58 0.64 0.69 0.73 0.70 0.69 0.64 0.66 0.66 0.61 0.55 0.60 0.57 0.52 0.45 0.42 0.43 0.44 0.46 0.48 0.46 0.44 0.43 0.38 0.38 0.45 0.41 0.29 0.21 0.19 0.25 0.31 0.39 0.39
0.12 0.10 0.13 0.20 0.16 0.18 0.24 0.28 0.36 0.45 0.54 0.60 0.60 0.57 0.69 0.70 0.74 0.69 0.61 0.53 0.49 0.48 0.50 0.49 0.44 0.41 0.43 0.47 0.51 0.55 0.61 0.61 0.54 0.47 0.48 0.47 0.42 0.40 0.31 0.28 0.31 0.36 0.41
0.08 0.09 0.11 0.11 0.12 0.16 0.20 0.22 0.32 0.41 0.49 0.56 0.59 0.62 0.64 0.68 0.73 0.76 0.74 0.67 0.59 0.52 0.49 0.49 0.46 0.41 0.41 0.44 0.47 0.52 0.64 0.75 0.82 0.74 0.66 0.60 0.57 0.56 0.47 0.42 0.39 0.38 0.43
0.08 0.09 0.10 0.09 0.09 0.13 0.17 0.19 0.24 0.30 0.34 0.46 0.59 0.60 0.64 0.73 0.73 0.71 0.80 0.81 0.77 0.72 0.66 0.60 0.56 0.49 0.42 0.44 0.46 0.48 0.53 0.66 0.84 0.98 0.99 0.86 0.74 0.70 0.59 0.53 0.50 0.49 0.54
0.10 0.11 0.12 0.16 0.12 0.14 0.17 0.21 0.26 0.30 0.34 0.45 0.55 0.62 0.68 0.78 0.82 0.82 0.85 0.92 0.91 0.88 0.86 0.80 0.75 0.69 0.63 0.60 0.58 0.55 0.53 0.56 0.65 0.80 0.97 1.02 0.98 0.84 0.76 0.70 0.62 0.58 0.56
0.13 0.13 0.17 0.20 0.17 0.16 0.21 0.24 0.30 0.35 0.44 0.58 0.69 0.74 0.83 0.93 0.97 0.92 0.95 0.97 1.01 1.02 1.02 1.01 0.92 0.81 0.74 0.71 0.72 0.69 0.67 0.67 0.66 0.66 0.71 0.84 0.99 0.95 0.87 0.80 0.75 0.71 0.72
0.18 0.22 0.29 0.31 0.31 0.30 0.29 0.33 0.44 0.53 0.69 0.87 0.91 0.92 0.95 1.00 1.06 1.10 1.13 1.18 1.24 1.25 1.27 1.19 1.09 1.01 0.94 0.85 0.90 0.98 0.95 0.95 0.83 0.72 0.66 0.63 0.73 0.83 0.87 0.78 0.74 0.76 0.76
0.26 0.28 0.38 0.47 0.50 0.47 0.48 0.57 0.68 0.83 1.04 1.26 1.32 1.37 1.38 1.38 1.41 1.41 1.41 1.45 1.47 1.46 1.38 1.30 1.27 1.21 1.07 1.11 1.09 1.02 1.00 1.05 1.03 0.90 0.80 0.67 0.61 0.62 0.69 0.74 0.74 0.74 0.73
0.38 0.38 0.47 0.59 0.67 0.66 0.64 0.73 0.84 1.02 1.19 1.29 1.28 1.32 1.39 1.46 1.47 1.47 1.48 1.44 1.44 1.41 1.34 1.34 1.36 1.33 1.29 1.16 0.96 0.82 0.81 0.86 0.89 0.91 0.86 0.67 0.53 0.56 0.59 0.67 0.68 0.65 0.60
0.38 0.44 0.55 0.60 0.65 0.70 0.73 0.81 0.88 0.92 1.07 1.15 1.15 1.14 1.16 1.18 1.22 1.29 1.30 1.29 1.30 1.29 1.25 1.21 1.11 1.05 0.99 0.90 0.77 0.71 0.71 0.73 0.70 0.78 0.83 0.77 0.66 0.60 0.61 0.58 0.55 0.53 0.50
0.44 0.49 0.56 0.56 0.60 0.64 0.69 0.70 0.75 0.79 0.87 0.92 0.93 0.92 0.95 0.99 1.04 1.12 1.19 1.25 1.21 1.10 0.99 0.92 0.90 0.89 0.88 0.87 0.72 0.64 0.68 0.72 0.65 0.65 0.67 0.69 0.63 0.55 0.45 0.46 0.42 0.40 0.39
0.36 0.46 0.58 0.58 0.54 0.55 0.57 0.59 0.63 0.68 0.75 0.85 0.92 0.92 0.91 0.93 0.95 1.01 1.07 1.10 1.06 0.99 0.93 0.86 0.83 0.84 0.85 0.85 0.66 0.59 0.64 0.68 0.65 0.66 0.69 0.71 0.63 0.49 0.36 0.40 0.44 0.37 0.33
0.32 0.39 0.49 0.60 0.58 0.58 0.60 0.64 0.62 0.63 0.66 0.75 0.82 0.84 0.82 0.82 0.83 0.87 0.89 0.95 0.99 0.96 0.89 0.80 0.77 0.78 0.76 0.70 0.52 0.44 0.49 0.55 0.57 0.55 0.57 0.65 0.59 0.45 0.32 0.35 0.40 0.35 0.35
0.23 0.31 0.39 0.48 0.56 0.62 0.66 0.68 0.64 0.63 0.67 0.75 0.77 0.76 0.74 0.73 0.71 0.72 0.75 0.80 0.84 0.80 0.76 0.73 0.73 0.75 0.73 0.59 0.47 0.35 0.36 0.44 0.50 0.58 0.60 0.68 0.66 0.52 0.42 0.37 0.35 0.28 0.26
0.17 0.20 0.27 0.37 0.44 0.56 0.65 0.70 0.70 0.70 0.70 0.74 0.78 0.75 0.72 0.73 0.74 0.75 0.78 0.81 0.81 0.81 0.76 0.69 0.59 0.55 0.58 0.56 0.38 0.29 0.25 0.32 0.44 0.65 0.82 0.85 0.80 0.68 0.56 0.49 0.45 0.34 0.29
0.18 0.21 0.27 0.33 0.37 0.43 0.52 0.61 0.69 0.74 0.77 0.76 0.70 0.66 0.65 0.66 0.71 0.80 0.85 0.86 0.86 0.82 0.74 0.68 0.62 0.58 0.59 0.59 0.52 0.44 0.37 0.38 0.46 0.65 0.84 0.96 1.01 0.95 0.82 0.71 0.64 0.48 0.40
0.24 0.27 0.30 0.31 0.33 0.38 0.43 0.51 0.60 0.66 0.70 0.71 0.68 0.65 0.62 0.62 0.65 0.70 0.73 0.71 0.72 0.69 0.64 0.59 0.58 0.59 0.60 0.55 0.47 0.43 0.42 0.41 0.45 0.60 0.87 1.08 1.20 1.22 1.18 1.04 0.92 0.78 0.65
0.32 0.33 0.36 0.35 0.34 0.38 0.43 0.45 0.52 0.64 0.72 0.73 0.68 0.63 0.59 0.59 0.60 0.61 0.65 0.68 0.61 0.58 0.54 0.52 0.48 0.44 0.45 0.42 0.36 0.32 0.32 0.34 0.39 0.56 0.82 1.05 1.22 1.28 1.36 1.35 1.24 1.06 0.89

GEFSMW_prec_meanprecacc_126.txt.gz
Total_Precipitation_Accumulation
1.72 1.97 2.31 2.72 2.93 3.09 3.13 3.32 3.39 2.99 2.45 1.98 1.45 1.19 1.08 0.93 0.77 0.63 0.52 0.51 0.49 0.53 0.58 0.49 0.53 0.45 0.42 0.43 0.46 0.55 0.58 0.55 0.52 0.67 0.77 0.66 0.54 0.54 0.49 0.49 0.55 0.60 0.72
1.28 1.38 1.55 1.86 1.96 2.16 2.43 2.67 2.79 2.52 1.93 1.63 1.34 1.20 1.11 0.94 0.79 0.65 0.55 0.45 0.42 0.44 0.45 0.53 0.43 0.41 0.42 0.41 0.41 0.48 0.49 0.45 0.45 0.56 0.69 0.69 0.73 0.67 0.37 0.44 0.52 0.55 0.71
0.92 0.91 0.96 1.15 1.44 1.88 1.99 1.97 2.13 2.15 1.82 1.61 1.43 1.28 1.19 1.01 0.89 0.75 0.58 0.43 0.39 0.40 0.40 0.40 0.40 0.46 0.36 0.42 0.49 0.48 0.47 0.43 0.39 0.42 0.53 0.60 0.62 0.61 0.54 0.48 0.48 0.54 0.70
0.58 0.70 0.73 0.81 1.01 1.32 1.55 1.73 1.88 1.90 1.70 1.51 1.27 1.04 0.84 0.72 0.62 0.58 0.56 0.50 0.44 0.38 0.34 0.30 0.35 0.42 0.40 0.51 0.39 0.41 0.46 0.45 0.38 0.34 0.32 0.33 0.40 0.49 0.61 0.60 0.51 0.53 0.59
0.27 0.40 0.54 0.67 0.71 0.90 1.24 1.57 1.82 1.95 1.70 1.38 1.16 1.05 0.86 0.76 0.68 0.61 0.66 0.57 0.51 0.45 0.36 0.34 0.35 0.35 0.35 0.43 0.43 0.52 0.47 0.47 0.43 0.34 0.30 0.32 0.30 0.29 0.33 0.50 0.56 0.55 0.42
0.17 0.27 0.36 0.46 0.59 0.71 0.92 1.13 1.37 1.58 1.51 1.32 1.16 1.07 0.98 0.90 0.78 0.63 0.57 0.52 0.52 0.51 0.47 0.43 0.45 0.44 0.37 0.35 0.35 0.40 0.45 0.52 0.55 0.44 0.34 0.35 0.32 0.26 0.26 0.26 0.30 0.41 0.36
0.14 0.23 0.32 0.32 0.43 0.51 0.57 0.69 0.93 1.12 1.17 1.15 1.11 1.01 1.04 1.02 0.91 0.76 0.66 0.60 0.51 0.49 0.49 0.47 0.49 0.50 0.49 0.43 0.38 0.34 0.37 0.45 0.51 0.49 0.40 0.33 0.26 0.27 0.30 0.26 0.21 0.24 0.25
0.11 0.17 0.26 0.28 0.29 0.35 0.43 0.52 0.68 0.82 0.89 0.90 0.96 0.93 0.87 0.81 0.83 0.87 0.77 0.67 0.60 0.53 0.49 0.49 0.46 0.47 0.50 0.49 0.50 0.40 0.36 0.39 0.42 0.43 0.48 0.43 0.26 0.23 0.29 0.29 0.31 0.32 0.31
0.17 0.17 0.23 0.24 0.20 0.23 0.30 0.36 0.50 0.62 0.69 0.75 0.82 0.81 0.79 0.73 0.74 0.75 0.68 0.61 0.66 0.63 0.57 0.52 0.49 0.51 0.50 0.50 0.52 0.50 0.48 0.45 0.40 0.41 0.49 0.46 0.35 0.26 0.23 0.28 0.35 0.42 0.42
0.23 0.20 0.19 0.26 0.23 0.22 0.28 0.32 0.40 0.49 0.58 0.66 0.68 0.66 0.78 0.77 0.81 0.75 0.67 0.58 0.55 0.54 0.58 0.58 0.53 0.52 0.54 0.55 0.58 0.60 0.65 0.67 0.60 0.52 0.53 0.51 0.47 0.45 0.35 0.33 0.37 0.42 0.45
0.17 0.17 0.16 0.15 0.16 0.20 0.23 0.24 0.34 0.44 0.53 0.63 0.67 0.71 0.73 0.75 0.80 0.82 0.79 0.73 0.67 0.61 0.59 0.60 0.58 0.54 0.54 0.54 0.56 0.59 0.68 0.80 0.87 0.79 0.71 0.66 0.63 0.62 0.53 0.49 0.47 0.45 0.48
0.12 0.13 0.14 0.14 0.12 0.15 0.18 0.20 0.26 0.33 0.40 0.55 0.66 0.68 0.74 0.80 0.78 0.76 0.87 0.88 0.85 0.80 0.76 0.71 0.70 0.63 0.55 0.56 0.55 0.55 0.59 0.72 0.89 1.03 1.05 0.92 0.81 0.77 0.66 0.61 0.58 0.54 0.58
0.15 0.15 0.18 0.22 0.17 0.16 0.19 0.23 0.28 0.32 0.36 0.48 0.60 0.67 0.74 0.82 0.86 0.87 0.91 1.01 1.01 0.98 0.95 0.90 0.86 0.80 0.74 0.70 0.69 0.64 0.61 0.64 0.72 0.86 1.02 1.07 1.03 0.89 0.81 0.74 0.67 0.63 0.61
0.17 0.18 0.29 0.32 0.22 0.19 0.24 0.26 0.32 0.37 0.47 0.60 0.71 0.76 0.86 0.97 1.02 0.97 1.00 1.04 1.10 1.12 1.13 1.11 1.01 0.92 0.87 0.83 0.83 0.80 0.76 0.75 0.73 0.72 0.75 0.88 1.04 1.00 0.91 0.83 0.79 0.75 0.76
0.22 0.26 0.35 0.40 0.37 0.33 0.32 0.35 0.46 0.55 0.70 0.89 0.94 0.95 0.97 1.03 1.10 1.15 1.18 1.24 1.32 1.33 1.38 1.32 1.21 1.13 1.07 0.97 1.01 1.08 1.05 1.03 0.90 0.78 0.71 0.69 0.80 0.90 0.91 0.81 0.78 0.80 0.82
0.30 0.32 0.41 0.50 0.53 0.50 0.50 0.58 0.70 0.85 1.06 1.28 1.34 1.40 1.41 1.41 1.44 1.45 1.46 1.52 1.53 1.54 1.48 1.41 1.39 1.33 1.19 1.25 1.21 1.11 1.09 1.15 1.12 0.98 0.86 0.73 0.66 0.68 0.73 0.78 0.78 0.78 0.79
0.42 0.42 0.51 0.63 0.71 0.69 0.67 0.75 0.86 1.04 1.21 1.31 1.31 1.35 1.43 1.48 1.50 1.52 1.54 1.51 1.51 1.48 1.41 1.43 1.45 1.42 1.39 1.26 1.04 0.89 0.88 0.93 0.98 0.99 0.93 0.72 0.59 0.62 0.63 0.72 0.72 0.69 0.64
0.50 0.51 0.59 0.64 0.68 0.73 0.75 0.83 0.90 0.94 1.10 1.18 1.18 1.18 1.20 1.21 1.24 1.33 1.37 1.37 1.38 1.35 1.30 1.26 1.17 1.13 1.07 0.98 0.85 0.79 0.79 0.81 0.79 0.86 0.90 0.83 0.72 0.65 0.65 0.63 0.59 0.57 0.55
0.53 0.58 0.64 0.62 0.63 0.68 0.73 0.72 0.77 0.81 0.90 0.95 0.98 0.95 0.99 1.02 1.08 1.15 1.24 1.32 1.31 1.19 1.07 0.99 0.97 0.97 0.98 1.00 0.84 0.77 0.80 0.84 0.77 0.75 0.75 0.75 0.67 0.59 0.50 0.51 0.47 0.44 0.44
0.46 0.55 0.64 0.63 0.59 0.59 0.61 0.63 0.66 0.72 0.79 0.89 0.96 0.97 0.96 0.98 1.00 1.06 1.12 1.15 1.15 1.10 1.04 0.97 0.94 0.93 0.95 0.98 0.80 0.74 0.77 0.81 0.77 0.77 0.79 0.82 0.71 0.56 0.41 0.44 0.49 0.43 0.37
0.45 0.48 0.56 0.66 0.63 0.63 0.64 0.67 0.65 0.67 0.69 0.78 0.85 0.88 0.87 0.87 0.88 0.92 0.95 1.02 1.06 1.04 0.98 0.90 0.88 0.90 0.89 0.84 0.66 0.56 0.59 0.65 0.67 0.64 0.65 0.73 0.67 0.51 0.37 0.38 0.43 0.39 0.38
0.32 0.42 0.50 0.57 0.61 0.65 0.69 0.71 0.66 0.66 0.70 0.78 0.81 0.81 0.81 0.79 0.78 0.78 0.80 0.84 0.88 0.86 0.84 0.83 0.84 0.90 0.87 0.71 0.57 0.45 0.44 0.50 0.55 0.64 0.65 0.72 0.71 0.56 0.45 0.39 0.37 0.31 0.28
0.24 0.28 0.37 0.47 0.50 0.60 0.68 0.73 0.72 0.72 0.72 0.77 0.81 0.79 0.79 0.80 0.82 0.83 0.85 0.87 0.87 0.86 0.84 0.79 0.71 0.70 0.73 0.71 0.53 0.40 0.34 0.39 0.49 0.69 0.86 0.88 0.83 0.70 0.58 0.51 0.48 0.38 0.32
0.28 0.30 0.36 0.40 0.42 0.47 0.56 0.65 0.71 0.76 0.79 0.78 0.73 0.69 0.70 0.71 0.75 0.84 0.90 0.91 0.91 0.87 0.82 0.77 0.73 0.72 0.74 0.74 0.67 0.56 0.45 0.44 0.50 0.69 0.88 0.99 1.03 0.97 0.85 0.75 0.67 0.52 0.45
0.32 0.34 0.37 0.37 0.38 0.43 0.48 0.55 0.62 0.68 0.71 0.73 0.71 0.67 0.64 0.65 0.69 0.73 0.77 0.74 0.76 0.75 0.71 0.67 0.68 0.69 0.71 0.68 0.60 0.52 0.47 0.45 0.48 0.62 0.89 1.09 1.22 1.24 1.20 1.07 0.96 0.82 0.70
0.42 0.39 0.41 0.40 0.40 0.44 0.48 0.49 0.55 0.67 0.74 0.74 0.69 0.65 0.63 0.63 0.63 0.64 0.68 0.72 0.65 0.64 0.59 0.58 0.54 0.50 0.52 0.51 0.43 0.37 0.36 0.37 0.42 0.58 0.84 1.07 1.24 1.30 1.38 1.37 1.26 1.08 0.92

GEFSMW_prec_meanprecacc_132.txt.gz
Total_Precipitation_Accumulation
1.73 1.99 2.37 2.77 2.99 3.15 3.22 3.44 3.56 3.21 2.67 2.19 1.65 1.37 1.26 1.08 0.91 0.76 0.63 0.60 0.55 0.58 0.61 0.51 0.55 0.46 0.43 0.44 0.47 0.56 0.60 0.58 0.57 0.71 0.82 0.70 0.58 0.58 0.54 0.53 0.59 0.64 0.76
1.30 1.41 1.61 1.93 2.03 2.23 2.52 2.81 2.95 2.71 2.17 1.90 1.59 1.41 1.29 1.14 0.99 0.82 0.66 0.52 0.48 0.49 0.48 0.55 0.45 0.42 0.43 0.42 0.43 0.50 0.51 0.47 0.49 0.61 0.74 0.73 0.75 0.70 0.40 0.47 0.56 0.59 0.75
0.94 0.94 1.01 1.21 1.51 1.97 2.09 2.08 2.25 2.30 2.02 1.84 1.68 1.48 1.37 1.19 1.06 0.90 0.69 0.50 0.46 0.47 0.45 0.43 0.43 0.48 0.39 0.45 0.53 0.51 0.49 0.46 0.43 0.45 0.55 0.62 0.63 0.61 0.55 0.49 0.52 0.58 0.74
0.60 0.74 0.77 0.86 1.06 1.37 1.62 1.80 1.98 2.04 1.86 1.71 1.47 1.22 0.99 0.83 0.70 0.65 0.63 0.57 0.50 0.45 0.41 0.35 0.39 0.45 0.42 0.55 0.43 0.45 0.49 0.48 0.40 0.36 0.33 0.34 0.41 0.49 0.62 0.61 0.53 0.56 0.63
0.32 0.46 0.59 0.71 0.74 0.93 1.28 1.63 1.91 2.05 1.81 1.51 1.30 1.19 1.00 0.88 0.78 0.71 0.76 0.65 0.58 0.51 0.44 0.41 0.42 0.40 0.39 0.47 0.47 0.54 0.49 0.49 0.46 0.36 0.31 0.33 0.31 0.31 0.35 0.51 0.58 0.58 0.45
0.22 0.31 0.39 0.49 0.61 0.74 0.96 1.18 1.44 1.66 1.60 1.41 1.26 1.19 1.12 1.03 0.90 0.73 0.66 0.61 0.59 0.57 0.54 0.50 0.51 0.49 0.42 0.40 0.40 0.45 0.49 0.55 0.59 0.48 0.36 0.37 0.34 0.28 0.28 0.27 0.31 0.43 0.38
0.18 0.27 0.35 0.33 0.44 0.53 0.61 0.74 0.99 1.18 1.23 1.21 1.19 1.12 1.16 1.14 1.01 0.84 0.73 0.66 0.57 0.54 0.53 0.52 0.54 0.54 0.54 0.48 0.46 0.41 0.44 0.52 0.56 0.53 0.44 0.36 0.29 0.29 0.32 0.27 0.23 0.26 0.27
0.14 0.19 0.28 0.30 0.30 0.36 0.47 0.59 0.75 0.87 0.93 0.95 1.02 1.02 0.97 0.90 0.92 0.95 0.83 0.72 0.64 0.58 0.53 0.53 0.50 0.51 0.54 0.56 0.57 0.46 0.41 0.45 0.47 0.47 0.50 0.45 0.28 0.25 0.31 0.31 0.32 0.34 0.34
0.19 0.20 0.27 0.27 0.22 0.28 0.36 0.40 0.54 0.67 0.75 0.82 0.92 0.91 0.88 0.81 0.80 0.79 0.72 0.66 0.70 0.68 0.63 0.57 0.55 0.56 0.55 0.55 0.57 0.55 0.52 0.50 0.44 0.44 0.51 0.48 0.38 0.29 0.25 0.31 0.38 0.45 0.45
0.25 0.25 0.24 0.29 0.25 0.26 0.32 0.35 0.43 0.54 0.64 0.73 0.77 0.77 0.86 0.83 0.86 0.80 0.70 0.61 0.59 0.57 0.62 0.62 0.57 0.57 0.59 0.62 0.63 0.66 0.71 0.72 0.65 0.55 0.55 0.54 0.49 0.48 0.38 0.35 0.40 0.46 0.48
0.21 0.23 0.19 0.21 0.21 0.22 0.25 0.27 0.37 0.47 0.56 0.66 0.71 0.76 0.79 0.81 0.84 0.86 0.83 0.76 0.70 0.64 0.63 0.63 0.61 0.59 0.61 0.61 0.63 0.66 0.75 0.86 0.93 0.83 0.73 0.68 0.65 0.64 0.56 0.52 0.50 0.48 0.52
0.13 0.15 0.16 0.18 0.16 0.20 0.22 0.22 0.27 0.34 0.41 0.58 0.71 0.73 0.80 0.85 0.82 0.80 0.91 0.91 0.88 0.84 0.80 0.75 0.74 0.70 0.63 0.64 0.64 0.62 0.65 0.77 0.94 1.09 1.09 0.96 0.84 0.80 0.70 0.65 0.62 0.58 0.62
0.16 0.16 0.20 0.23 0.19 0.20 0.23 0.26 0.29 0.34 0.38 0.50 0.62 0.70 0.76 0.84 0.88 0.91 0.96 1.05 1.04 1.03 1.01 0.95 0.90 0.85 0.80 0.78 0.78 0.72 0.68 0.69 0.77 0.91 1.07 1.11 1.08 0.93 0.85 0.78 0.70 0.67 0.65
0.17 0.19 0.30 0.33 0.24 0.20 0.25 0.28 0.33 0.39 0.48 0.62 0.73 0.77 0.88 1.00 1.04 1.01 1.06 1.09 1.13 1.16 1.17 1.13 1.04 0.96 0.92 0.89 0.90 0.88 0.84 0.83 0.81 0.79 0.83 0.95 1.10 1.06 0.97 0.89 0.84 0.80 0.80
0.23 0.27 0.36 0.41 0.38 0.34 0.33 0.36 0.46 0.55 0.71 0.90 0.95 0.95 0.99 1.06 1.12 1.18 1.23 1.30 1.36 1.37 1.42 1.35 1.25 1.18 1.12 1.02 1.07 1.16 1.14 1.13 1.01 0.90 0.83 0.80 0.90 0.99 1.00 0.89 0.84 0.86 0.88
0.31 0.33 0.42 0.51 0.54 0.51 0.51 0.60 0.70 0.86 1.07 1.30 1.35 1.41 1.43 1.44 1.47 1.49 1.50 1.57 1.60 1.60 1.53 1.46 1.45 1.39 1.25 1.31 1.29 1.18 1.17 1.26 1.25 1.13 1.01 0.86 0.78 0.78 0.84 0.87 0.86 0.85 0.85
0.44 0.43 0.53 0.65 0.73 0.71 0.69 0.77 0.87 1.06 1.24 1.34 1.34 1.39 1.46 1.52 1.53 1.56 1.57 1.55 1.57 1.54 1.46 1.47 1.51 1.49 1.48 1.36 1.15 1.01 0.98 1.05 1.10 1.11 1.04 0.83 0.70 0.73 0.74 0.82 0.82 0.76 0.70
0.51 0.54 0.63 0.69 0.72 0.76 0.79 0.86 0.92 0.98 1.16 1.24 1.22 1.21 1.23 1.24 1.28 1.36 1.40 1.40 1.41 1.39 1.33 1.29 1.21 1.18 1.15 1.07 0.94 0.89 0.88 0.89 0.86 0.93 0.98 0.91 0.80 0.73 0.72 0.68 0.63 0.60 0.58
0.56 0.62 0.70 0.68 0.67 0.72 0.77 0.76 0.80 0.85 0.95 1.01 1.02 0.99 1.01 1.05 1.11 1.18 1.27 1.34 1.33 1.21 1.09 1.02 1.01 1.01 1.03 1.06 0.90 0.83 0.84 0.88 0.81 0.81 0.83 0.82 0.74 0.67 0.56 0.56 0.51 0.47 0.47
0.49 0.58 0.70 0.69 0.66 0.66 0.67 0.67 0.70 0.75 0.84 0.94 1.01 1.00 0.98 1.01 1.05 1.11 1.18 1.20 1.18 1.14 1.09 1.03 1.00 0.99 1.00 1.04 0.85 0.79 0.83 0.87 0.83 0.83 0.85 0.89 0.77 0.62 0.47 0.49 0.54 0.48 0.43
0.50 0.53 0.62 0.72 0.70 0.70 0.71 0.73 0.70 0.71 0.75 0.83 0.90 0.92 0.90 0.91 0.94 0.99 1.02 1.08 1.12 1.10 1.04 0.97 0.95 0.98 0.98 0.92 0.73 0.63 0.65 0.71 0.73 0.69 0.70 0.79 0.73 0.57 0.42 0.42 0.46 0.42 0.41
0.36 0.47 0.55 0.62 0.66 0.73 0.79 0.79 0.72 0.71 0.75 0.85 0.88 0.86 0.86 0.84 0.83 0.83 0.85 0.90 0.93 0.91 0.90 0.89 0.90 0.96 0.93 0.78 0.64 0.52 0.50 0.55 0.59 0.68 0.69 0.77 0.76 0.60 0.50 0.43 0.40 0.33 0.29
0.29 0.33 0.41 0.51 0.54 0.64 0.73 0.80 0.79 0.79 0.77 0.81 0.85 0.82 0.82 0.83 0.85 0.88 0.90 0.91 0.91 0.90 0.87 0.82 0.75 0.75 0.78 0.77 0.60 0.46 0.41 0.45 0.54 0.75 0.92 0.94 0.88 0.73 0.60 0.53 0.50 0.39 0.33
0.35 0.36 0.41 0.45 0.45 0.50 0.58 0.68 0.75 0.79 0.81 0.79 0.74 0.71 0.72 0.72 0.77 0.87 0.93 0.95 0.94 0.91 0.84 0.80 0.76 0.75 0.77 0.77 0.72 0.61 0.52 0.53 0.59 0.77 0.95 1.06 1.08 1.00 0.87 0.78 0.69 0.53 0.47
0.42 0.42 0.44 0.44 0.45 0.48 0.51 0.58 0.65 0.70 0.73 0.75 0.73 0.69 0.67 0.67 0.71 0.75 0.79 0.77 0.78 0.78 0.74 0.70 0.70 0.71 0.73 0.71 0.66 0.60 0.56 0.53 0.57 0.70 0.95 1.16 1.27 1.28 1.23 1.09 0.97 0.84 0.72
0.49 0.47 0.48 0.49 0.50 0.53 0.53 0.52 0.58 0.69 0.76 0.77 0.72 0.69 0.66 0.66 0.67 0.66 0.70 0.75 0.68 0.68 0.63 0.61 0.56 0.53 0.55 0.55 0.49 0.45 0.44 0.44 0.49 0.63 0.89 1.12 1.29 1.34 1.42 1.39 1.28 1.10 0.94

GEFSMW_prec_meanprecacc_138.txt.gz
Total_Precipitation_Accumulation
1.74 2.01 2.40 2.81 3.01 3.17 3.26 3.51 3.66 3.34 2.78 2.28 1.74 1.44 1.31 1.13 0.97 0.82 0.69 0.68 0.61 0.66 0.68 0.57 0.60 0.52 0.51 0.54 0.56 0.65 0.68 0.66 0.66 0.84 0.94 0.80 0.65 0.64 0.59 0.59 0.66 0.70 0.82
1.31 1.43 1.65 1.98 2.06 2.26 2.57 2.88 3.04 2.85 2.30 2.02 1.72 1.51 1.37 1.21 1.07 0.90 0.74 0.60 0.56 0.59 0.56 0.62 0.50 0.50 0.53 0.54 0.54 0.61 0.61 0.55 0.56 0.73 0.90 0.86 0.86 0.78 0.44 0.53 0.62 0.65 0.83
0.96 0.98 1.06 1.24 1.54 2.01 2.14 2.14 2.32 2.41 2.15 1.99 1.83 1.63 1.49 1.29 1.14 0.98 0.79 0.58 0.54 0.56 0.54 0.52 0.49 0.56 0.46 0.55 0.63 0.63 0.61 0.58 0.51 0.53 0.66 0.73 0.73 0.69 0.61 0.53 0.55 0.62 0.79
0.62 0.77 0.81 0.88 1.08 1.39 1.65 1.85 2.03 2.12 1.98 1.83 1.61 1.39 1.17 0.97 0.79 0.75 0.74 0.68 0.61 0.55 0.51 0.44 0.49 0.55 0.51 0.64 0.51 0.54 0.60 0.59 0.50 0.45 0.40 0.41 0.47 0.56 0.68 0.64 0.55 0.59 0.66
0.33 0.48 0.61 0.73 0.75 0.95 1.31 1.67 1.96 2.11 1.91 1.61 1.44 1.35 1.19 1.04 0.88 0.80 0.89 0.78 0.71 0.61 0.54 0.50 0.51 0.48 0.46 0.55 0.56 0.65 0.59 0.58 0.55 0.45 0.39 0.39 0.38 0.36 0.42 0.58 0.63 0.62 0.48
0.23 0.33 0.40 0.49 0.62 0.75 0.97 1.20 1.47 1.69 1.66 1.49 1.37 1.30 1.25 1.16 1.02 0.82 0.76 0.72 0.71 0.68 0.63 0.60 0.59 0.56 0.49 0.49 0.51 0.56 0.61 0.65 0.69 0.57 0.44 0.44 0.42 0.35 0.36 0.34 0.37 0.49 0.41
0.18 0.27 0.35 0.33 0.44 0.54 0.62 0.75 1.02 1.21 1.29 1.28 1.26 1.19 1.24 1.23 1.12 0.96 0.81 0.73 0.65 0.61 0.62 0.60 0.62 0.61 0.61 0.58 0.56 0.53 0.53 0.60 0.66 0.61 0.50 0.42 0.34 0.34 0.37 0.35 0.29 0.31 0.30
0.14 0.19 0.28 0.30 0.30 0.37 0.48 0.60 0.78 0.91 0.97 0.99 1.07 1.06 1.04 0.98 1.03 1.06 0.92 0.78 0.70 0.64 0.60 0.60 0.57 0.57 0.60 0.61 0.65 0.54 0.48 0.53 0.56 0.54 0.59 0.52 0.32 0.29 0.35 0.37 0.40 0.42 0.40
0.19 0.20 0.27 0.27 0.22 0.28 0.36 0.41 0.56 0.69 0.78 0.86 0.95 0.94 0.93 0.87 0.88 0.88 0.80 0.73 0.77 0.75 0.69 0.63 0.61 0.62 0.61 0.61 0.65 0.62 0.59 0.58 0.51 0.50 0.59 0.55 0.43 0.33 0.28 0.35 0.44 0.55 0.56
0.25 0.25 0.25 0.30 0.26 0.26 0.32 0.36 0.44 0.56 0.66 0.75 0.80 0.81 0.90 0.88 0.94 0.87 0.77 0.69 0.67 0.66 0.68 0.67 0.61 0.62 0.64 0.69 0.72 0.73 0.79 0.80 0.71 0.62 0.63 0.61 0.54 0.52 0.41 0.38 0.44 0.53 0.58
0.21 0.23 0.20 0.22 0.22 0.23 0.25 0.27 0.38 0.48 0.57 0.68 0.74 0.80 0.82 0.84 0.89 0.91 0.89 0.82 0.76 0.72 0.69 0.68 0.65 0.64 0.66 0.68 0.70 0.72 0.83 0.95 0.99 0.88 0.79 0.74 0.70 0.70 0.60 0.56 0.54 0.53 0.60
0.13 0.15 0.17 0.18 0.17 0.21 0.22 0.22 0.27 0.35 0.42 0.60 0.73 0.76 0.83 0.88 0.87 0.87 0.99 0.98 0.94 0.90 0.85 0.80 0.80 0.75 0.68 0.69 0.69 0.67 0.70 0.83 1.01 1.17 1.17 1.03 0.91 0.86 0.75 0.70 0.68 0.65 0.70
0.16 0.16 0.20 0.24 0.20 0.20 0.23 0.26 0.29 0.35 0.39 0.51 0.63 0.73 0.81 0.88 0.92 0.96 1.05 1.14 1.11 1.08 1.07 1.02 0.97 0.90 0.85 0.82 0.82 0.77 0.73 0.76 0.85 1.01 1.17 1.20 1.16 1.01 0.91 0.83 0.76 0.72 0.70
0.17 0.20 0.30 0.33 0.24 0.21 0.25 0.28 0.33 0.39 0.49 0.64 0.74 0.80 0.93 1.03 1.07 1.04 1.11 1.17 1.21 1.24 1.24 1.21 1.11 1.02 0.97 0.93 0.96 0.95 0.92 0.91 0.90 0.89 0.93 1.05 1.19 1.15 1.06 0.97 0.91 0.86 0.86
0.23 0.27 0.36 0.41 0.38 0.34 0.33 0.36 0.47 0.56 0.72 0.91 0.96 0.97 1.02 1.08 1.14 1.22 1.27 1.38 1.43 1.44 1.49 1.42 1.31 1.23 1.16 1.06 1.13 1.22 1.21 1.21 1.10 0.98 0.90 0.88 1.00 1.09 1.10 0.98 0.92 0.94 0.96
0.31 0.33 0.42 0.51 0.54 0.51 0.51 0.60 0.71 0.86 1.08 1.30 1.36 1.42 1.45 1.45 1.48 1.50 1.53 1.64 1.68 1.65 1.58 1.50 1.48 1.42 1.27 1.35 1.33 1.23 1.23 1.32 1.31 1.20 1.11 0.97 0.89 0.91 0.99 1.04 1.03 0.99 0.97
0.44 0.43 0.53 0.65 0.73 0.71 0.69 0.77 0.87 1.06 1.24 1.35 1.35 1.40 1.48 1.53 1.54 1.57 1.59 1.58 1.61 1.59 1.53 1.54 1.56 1.53 1.52 1.41 1.19 1.06 1.03 1.10 1.16 1.19 1.15 0.97 0.87 0.90 0.89 0.99 0.99 0.91 0.83
0.51 0.55 0.63 0.69 0.72 0.76 0.79 0.86 0.92 0.98 1.17 1.25 1.23 1.22 1.25 1.27 1.30 1.38 1.42 1.43 1.44 1.41 1.38 1.35 1.28 1.24 1.21 1.14 0.99 0.94 0.92 0.95 0.93 1.01 1.07 1.00 0.89 0.84 0.82 0.77 0.71 0.67 0.65
0.56 0.63 0.71 0.68 0.68 0.73 0.78 0.77 0.81 0.86 0.96 1.02 1.04 1.01 1.04 1.08 1.13 1.20 1.29 1.36 1.35 1.23 1.11 1.04 1.03 1.04 1.07 1.11 0.95 0.88 0.88 0.92 0.86 0.86 0.87 0.87 0.78 0.73 0.62 0.61 0.55 0.52 0.52
0.49 0.59 0.71 0.71 0.67 0.67 0.68 0.69 0.72 0.77 0.86 0.96 1.03 1.02 1.00 1.03 1.07 1.14 1.21 1.22 1.20 1.16 1.12 1.06 1.02 1.01 1.02 1.09 0.92 0.86 0.87 0.92 0.88 0.88 0.90 0.93 0.80 0.65 0.50 0.52 0.56 0.51 0.46
0.51 0.55 0.64 0.74 0.72 0.73 0.74 0.76 0.73 0.74 0.78 0.86 0.93 0.94 0.92 0.93 0.96 1.02 1.06 1.12 1.15 1.13 1.07 0.99 0.98 1.01 1.01 0.98 0.81 0.72 0.70 0.76 0.77 0.74 0.74 0.82 0.76 0.60 0.45 0.46 0.50 0.45 0.44
0.38 0.50 0.58 0.66 0.71 0.77 0.83 0.83 0.75 0.73 0.77 0.87 0.90 0.88 0.88 0.86 0.85 0.85 0.88 0.93 0.96 0.94 0.92 0.91 0.92 0.98 0.96 0.82 0.69 0.57 0.55 0.59 0.62 0.71 0.72 0.80 0.79 0.63 0.53 0.46 0.43 0.36 0.32
0.31 0.36 0.45 0.55 0.58 0.68 0.77 0.84 0.82 0.81 0.78 0.82 0.86 0.84 0.84 0.85 0.88 0.90 0.92 0.93 0.92 0.92 0.89 0.84 0.77 0.77 0.80 0.79 0.63 0.50 0.44 0.48 0.56 0.77 0.96 0.97 0.91 0.76 0.63 0.56 0.53 0.41 0.35
0.38 0.40 0.46 0.48 0.49 0.54 0.62 0.72 0.78 0.81 0.83 0.81 0.75 0.72 0.73 0.74 0.79 0.88 0.94 0.96 0.95 0.92 0.86 0.81 0.77 0.76 0.78 0.79 0.73 0.63 0.53 0.54 0.61 0.80 0.98 1.09 1.11 1.03 0.90 0.80 0.71 0.55 0.49
0.45 0.46 0.48 0.48 0.48 0.51 0.54 0.61 0.68 0.72 0.74 0.76 0.74 0.70 0.67 0.68 0.72 0.76 0.80 0.78 0.79 0.79 0.76 0.72 0.72 0.73 0.75 0.74 0.69 0.62 0.57 0.55 0.58 0.71 0.97 1.17 1.30 1.32 1.27 1.12 1.00 0.87 0.75
0.51 0.51 0.52 0.52 0.53 0.56 0.58 0.57 0.62 0.72 0.79 0.79 0.74 0.70 0.68 0.67 0.68 0.68 0.72 0.79 0.71 0.71 0.66 0.64 0.59 0.55 0.58 0.58 0.52 0.47 0.46 0.46 0.51 0.65 0.90 1.14 1.32 1.39 1.47 1.44 1.32 1.13 0.96

GEFSMW_prec_meanprecacc_144.txt.gz
Total_Precipitation_Accumulation
1.75 2.02 2.41 2.83 3.03 3.19 3.29 3.55 3.72 3.39 2.83 2.34 1.80 1.52 1.38 1.17 1.00 0.86 0.75 0.73 0.66 0.70 0.73 0.63 0.67 0.58 0.57 0.58 0.59 0.71 0.74 0.72 0.72 0.96 1.12 0.95 0.75 0.72 0.64 0.65 0.77 0.82 0.87
1.32 1.44 1.66 1.99 2.07 2.28 2.60 2.93 3.10 2.92 2.36 2.08 1.79 1.59 1.45 1.26 1.12 0.96 0.82 0.68 0.63 0.63 0.60 0.69 0.57 0.57 0.62 0.61 0.61 0.70 0.71 0.63 0.64 0.85 1.07 1.02 1.05 0.97 0.52 0.60 0.70 0.76 0.91
0.98 0.99 1.07 1.25 1.55 2.02 2.16 2.17 2.37 2.48 2.22 2.06 1.93 1.74 1.60 1.35 1.21 1.06 0.88 0.64 0.58 0.60 0.59 0.56 0.55 0.65 0.52 0.64 0.74 0.72 0.71 0.69 0.62 0.61 0.78 0.89 0.92 0.86 0.75 0.63 0.62 0.68 0.85
0.64 0.78 0.81 0.88 1.08 1.40 1.66 1.88 2.07 2.19 2.07 1.92 1.70 1.50 1.27 1.07 0.89 0.85 0.86 0.78 0.68 0.61 0.58 0.51 0.57 0.66 0.57 0.75 0.58 0.61 0.69 0.70 0.61 0.56 0.47 0.49 0.61 0.74 0.84 0.76 0.63 0.65 0.71
0.34 0.49 0.61 0.73 0.76 0.95 1.32 1.70 2.01 2.19 1.99 1.68 1.52 1.46 1.31 1.16 1.01 0.92 1.02 0.91 0.81 0.71 0.62 0.59 0.62 0.57 0.53 0.62 0.64 0.77 0.69 0.67 0.63 0.56 0.49 0.49 0.47 0.45 0.57 0.73 0.75 0.72 0.54
0.23 0.33 0.40 0.49 0.62 0.76 0.98 1.22 1.53 1.76 1.74 1.56 1.45 1.39 1.37 1.30 1.17 0.97 0.89 0.83 0.79 0.77 0.72 0.71 0.72 0.65 0.57 0.58 0.59 0.65 0.68 0.75 0.81 0.67 0.54 0.55 0.52 0.45 0.48 0.48 0.50 0.59 0.47
0.18 0.28 0.35 0.33 0.44 0.54 0.63 0.77 1.05 1.25 1.34 1.36 1.34 1.27 1.35 1.35 1.23 1.08 0.94 0.86 0.74 0.70 0.70 0.70 0.76 0.74 0.72 0.68 0.66 0.63 0.64 0.72 0.79 0.70 0.58 0.50 0.41 0.43 0.46 0.48 0.40 0.40 0.36
0.14 0.22 0.30 0.30 0.31 0.37 0.48 0.62 0.81 0.96 1.02 1.07 1.15 1.15 1.13 1.07 1.12 1.17 1.04 0.91 0.82 0.75 0.70 0.71 0.67 0.67 0.70 0.70 0.79 0.65 0.60 0.64 0.65 0.61 0.69 0.61 0.38 0.36 0.43 0.47 0.51 0.54 0.51
0.21 0.21 0.27 0.28 0.23 0.28 0.36 0.43 0.59 0.72 0.80 0.91 1.02 1.01 1.01 0.96 0.98 0.99 0.94 0.87 0.89 0.86 0.79 0.71 0.69 0.71 0.73 0.74 0.79 0.73 0.73 0.72 0.62 0.59 0.68 0.63 0.48 0.38 0.32 0.40 0.52 0.68 0.73
0.27 0.26 0.25 0.31 0.27 0.26 0.32 0.36 0.46 0.58 0.68 0.78 0.85 0.85 0.96 0.95 1.03 1.00 0.90 0.83 0.79 0.76 0.79 0.76 0.69 0.70 0.75 0.81 0.84 0.84 0.90 0.93 0.84 0.72 0.73 0.69 0.59 0.58 0.45 0.42 0.51 0.63 0.74
0.24 0.24 0.20 0.23 0.23 0.23 0.25 0.28 0.39 0.51 0.60 0.71 0.77 0.84 0.86 0.89 0.96 1.00 0.99 0.93 0.86 0.82 0.80 0.79 0.74 0.71 0.74 0.78 0.81 0.81 0.92 1.05 1.12 0.97 0.87 0.82 0.76 0.77 0.67 0.64 0.66 0.66 0.77
0.15 0.18 0.18 0.18 0.17 0.21 0.22 0.23 0.28 0.36 0.45 0.63 0.76 0.80 0.88 0.93 0.92 0.93 1.06 1.07 1.03 0.98 0.96 0.92 0.90 0.83 0.76 0.79 0.78 0.73 0.78 0.95 1.14 1.28 1.30 1.15 1.00 0.97 0.84 0.80 0.78 0.76 0.81
0.18 0.22 0.23 0.24 0.20 0.21 0.23 0.26 0.30 0.35 0.40 0.53 0.66 0.76 0.85 0.94 0.98 1.02 1.11 1.22 1.20 1.17 1.17 1.14 1.08 1.00 0.96 0.93 0.91 0.85 0.83 0.87 0.96 1.12 1.30 1.31 1.30 1.14 1.03 0.94 0.88 0.83 0.78
0.18 0.21 0.32 0.33 0.24 0.21 0.25 0.28 0.34 0.40 0.50 0.66 0.77 0.83 0.98 1.09 1.14 1.11 1.19 1.24 1.30 1.33 1.34 1.32 1.24 1.15 1.10 1.06 1.05 1.04 1.03 1.02 1.01 1.00 1.05 1.14 1.29 1.24 1.15 1.07 1.01 0.97 0.96
0.23 0.27 0.36 0.41 0.38 0.34 0.33 0.36 0.47 0.56 0.73 0.93 0.98 0.99 1.06 1.13 1.21 1.30 1.37 1.46 1.51 1.51 1.59 1.51 1.41 1.34 1.28 1.17 1.23 1.32 1.32 1.32 1.19 1.06 0.98 0.95 1.08 1.17 1.18 1.06 1.01 1.03 1.05
0.31 0.33 0.42 0.51 0.54 0.51 0.51 0.60 0.71 0.87 1.08 1.31 1.38 1.44 1.48 1.49 1.53 1.57 1.60 1.70 1.74 1.72 1.66 1.59 1.56 1.50 1.34 1.40 1.39 1.30 1.31 1.43 1.41 1.28 1.18 1.04 0.97 0.98 1.04 1.10 1.11 1.09 1.07
0.44 0.44 0.53 0.66 0.73 0.71 0.69 0.77 0.88 1.06 1.25 1.35 1.37 1.42 1.50 1.56 1.58 1.60 1.64 1.64 1.66 1.66 1.60 1.61 1.63 1.59 1.57 1.45 1.24 1.10 1.08 1.16 1.23 1.27 1.22 1.02 0.91 0.95 0.95 1.07 1.09 1.03 0.96
0.52 0.57 0.64 0.69 0.72 0.77 0.79 0.87 0.93 0.99 1.17 1.26 1.24 1.23 1.27 1.28 1.32 1.41 1.46 1.47 1.49 1.47 1.43 1.41 1.34 1.30 1.26 1.20 1.03 0.97 0.96 0.98 0.97 1.05 1.13 1.07 0.95 0.90 0.89 0.84 0.78 0.75 0.75
0.56 0.63 0.71 0.69 0.69 0.74 0.79 0.77 0.82 0.86 0.97 1.03 1.05 1.02 1.05 1.10 1.16 1.23 1.32 1.40 1.39 1.28 1.16 1.09 1.08 1.08 1.12 1.18 1.00 0.92 0.91 0.94 0.88 0.88 0.90 0.91 0.83 0.79 0.70 0.67 0.60 0.56 0.56
0.49 0.59 0.71 0.71 0.68 0.69 0.70 0.70 0.73 0.79 0.87 0.97 1.04 1.03 1.02 1.07 1.11 1.18 1.24 1.26 1.24 1.20 1.16 1.10 1.06 1.05 1.05 1.13 0.97 0.89 0.89 0.93 0.89 0.90 0.93 0.99 0.85 0.71 0.55 0.56 0.60 0.53 0.48
0.51 0.55 0.65 0.75 0.74 0.75 0.76 0.79 0.76 0.77 0.82 0.89 0.95 0.97 0.96 0.98 1.02 1.08 1.09 1.15 1.19 1.16 1.11 1.04 1.01 1.04 1.04 1.01 0.85 0.75 0.73 0.78 0.80 0.76 0.77 0.86 0.81 0.64 0.49 0.49 0.53 0.48 0.46
0.38 0.50 0.60 0.68 0.73 0.79 0.85 0.85 0.78 0.77 0.81 0.90 0.93 0.91 0.91 0.90 0.90 0.90 0.90 0.95 0.99 0.97 0.95 0.94 0.94 1.00 0.98 0.84 0.71 0.60 0.57 0.61 0.64 0.74 0.75 0.83 0.84 0.66 0.56 0.48 0.46 0.39 0.34
0.32 0.37 0.46 0.57 0.60 0.70 0.79 0.86 0.85 0.84 0.81 0.85 0.90 0.88 0.88 0.89 0.92 0.93 0.94 0.95 0.94 0.94 0.92 0.87 0.79 0.79 0.81 0.80 0.64 0.50 0.45 0.49 0.57 0.79 0.98 0.99 0.93 0.78 0.64 0.57 0.54 0.43 0.36
0.38 0.41 0.47 0.50 0.51 0.56 0.64 0.74 0.81 0.84 0.85 0.84 0.79 0.75 0.76 0.77 0.81 0.90 0.95 0.97 0.97 0.94 0.88 0.83 0.79 0.78 0.80 0.79 0.73 0.63 0.54 0.55 0.62 0.81 0.99 1.09 1.12 1.03 0.91 0.82 0.73 0.57 0.51
0.46 0.47 0.50 0.49 0.50 0.53 0.57 0.64 0.71 0.74 0.78 0.80 0.78 0.74 0.71 0.71 0.75 0.79 0.83 0.81 0.83 0.82 0.79 0.74 0.74 0.76 0.78 0.77 0.72 0.64 0.59 0.56 0.60 0.73 0.98 1.18 1.31 1.33 1.28 1.14 1.02 0.88 0.77
0.53 0.53 0.54 0.54 0.55 0.58 0.61 0.60 0.65 0.75 0.82 0.83 0.77 0.73 0.69 0.69 0.70 0.71 0.76 0.82 0.74 0.73 0.68 0.66 0.61 0.58 0.62 0.62 0.55 0.50 0.49 0.48 0.53 0.66 0.91 1.15 1.33 1.40 1.49 1.47 1.35 1.16 0.98

GEFSMW_prec_meanprecacc_150.txt.gz
Total_Precipitation_Accumulation
1.75 2.03 2.43 2.85 3.05 3.22 3.31 3.57 3.74 3.42 2.88 2.41 1.86 1.56 1.42 1.23 1.09 0.97 0.82 0.81 0.73 0.74 0.76 0.65 0.69 0.60 0.60 0.61 0.62 0.74 0.78 0.75 0.75 1.02 1.24 1.08 0.86 0.84 0.76 0.75 0.84 0.91 0.94
1.34 1.46 1.67 2.00 2.08 2.30 2.61 2.96 3.17 2.98 2.42 2.13 1.84 1.63 1.48 1.32 1.22 1.11 0.92 0.76 0.71 0.69 0.62 0.71 0.59 0.58 0.64 0.63 0.65 0.73 0.75 0.66 0.66 0.90 1.14 1.08 1.14 1.09 0.62 0.69 0.79 0.85 0.99
1.00 1.00 1.09 1.26 1.56 2.03 2.17 2.20 2.43 2.59 2.29 2.12 1.99 1.81 1.65 1.42 1.31 1.18 0.98 0.75 0.67 0.65 0.63 0.60 0.58 0.67 0.54 0.66 0.76 0.75 0.74 0.73 0.65 0.65 0.83 0.94 0.96 0.91 0.81 0.69 0.68 0.76 0.94
0.68 0.82 0.83 0.89 1.09 1.41 1.68 1.92 2.14 2.27 2.14 1.99 1.77 1.56 1.33 1.14 1.00 0.97 0.96 0.90 0.79 0.68 0.64 0.56 0.61 0.69 0.60 0.78 0.61 0.63 0.73 0.74 0.64 0.59 0.51 0.53 0.66 0.78 0.88 0.80 0.68 0.70 0.79
0.37 0.54 0.65 0.74 0.77 0.97 1.34 1.74 2.05 2.24 2.06 1.75 1.59 1.54 1.39 1.25 1.14 1.03 1.12 1.01 0.93 0.81 0.71 0.66 0.67 0.62 0.58 0.66 0.68 0.81 0.73 0.71 0.66 0.60 0.54 0.56 0.53 0.50 0.61 0.77 0.79 0.78 0.61
0.25 0.34 0.41 0.50 0.64 0.77 1.00 1.25 1.55 1.80 1.79 1.61 1.51 1.47 1.44 1.38 1.25 1.04 1.00 0.94 0.90 0.87 0.82 0.83 0.80 0.71 0.62 0.63 0.64 0.71 0.74 0.79 0.85 0.72 0.60 0.62 0.59 0.51 0.54 0.52 0.54 0.64 0.53
0.21 0.30 0.37 0.34 0.45 0.55 0.65 0.78 1.07 1.28 1.38 1.42 1.41 1.34 1.42 1.43 1.30 1.14 1.01 0.95 0.82 0.77 0.77 0.78 0.84 0.79 0.76 0.74 0.72 0.70 0.70 0.77 0.83 0.75 0.63 0.56 0.48 0.51 0.54 0.56 0.47 0.46 0.42
0.16 0.25 0.33 0.31 0.32 0.38 0.50 0.63 0.83 0.99 1.08 1.13 1.22 1.22 1.21 1.16 1.19 1.24 1.11 0.98 0.90 0.83 0.79 0.79 0.75 0.74 0.77 0.76 0.87 0.72 0.67 0.72 0.71 0.66 0.74 0.68 0.46 0.45 0.52 0.57 0.60 0.62 0.60
0.22 0.22 0.28 0.28 0.24 0.29 0.37 0.44 0.60 0.75 0.84 0.94 1.06 1.07 1.08 1.02 1.04 1.05 1.02 0.96 0.97 0.94 0.88 0.79 0.76 0.78 0.80 0.81 0.86 0.80 0.79 0.79 0.69 0.65 0.73 0.68 0.54 0.46 0.40 0.49 0.61 0.78 0.80
0.29 0.28 0.26 0.32 0.28 0.27 0.33 0.37 0.47 0.59 0.69 0.80 0.88 0.87 1.00 1.00 1.10 1.08 0.99 0.91 0.85 0.84 0.88 0.85 0.78 0.79 0.83 0.88 0.90 0.90 0.95 0.99 0.90 0.77 0.77 0.74 0.65 0.64 0.51 0.49 0.61 0.75 0.85
0.28 0.31 0.30 0.28 0.25 0.24 0.26 0.28 0.40 0.51 0.60 0.72 0.78 0.85 0.89 0.93 1.00 1.05 1.03 0.97 0.91 0.86 0.86 0.86 0.82 0.78 0.81 0.86 0.89 0.88 0.99 1.12 1.17 1.03 0.92 0.87 0.82 0.83 0.72 0.70 0.74 0.77 0.90
0.18 0.22 0.24 0.21 0.19 0.21 0.22 0.23 0.29 0.36 0.45 0.63 0.77 0.81 0.89 0.94 0.94 0.96 1.10 1.10 1.05 1.01 1.00 0.98 0.97 0.90 0.84 0.87 0.85 0.79 0.85 1.01 1.21 1.36 1.38 1.21 1.07 1.03 0.90 0.87 0.86 0.85 0.92
0.19 0.25 0.28 0.26 0.21 0.21 0.23 0.26 0.30 0.36 0.41 0.54 0.67 0.77 0.86 0.94 0.99 1.04 1.15 1.24 1.23 1.21 1.22 1.21 1.15 1.08 1.05 1.02 0.97 0.91 0.89 0.93 1.02 1.20 1.38 1.38 1.37 1.21 1.11 1.03 0.96 0.91 0.87
0.20 0.24 0.35 0.35 0.26 0.21 0.25 0.28 0.34 0.40 0.50 0.66 0.78 0.84 0.99 1.11 1.16 1.13 1.21 1.27 1.33 1.37 1.39 1.38 1.31 1.24 1.19 1.16 1.13 1.10 1.08 1.08 1.06 1.06 1.10 1.20 1.36 1.31 1.23 1.16 1.10 1.06 1.04
0.25 0.31 0.39 0.43 0.39 0.35 0.33 0.37 0.47 0.57 0.73 0.93 0.99 1.00 1.07 1.15 1.23 1.33 1.39 1.48 1.54 1.56 1.64 1.58 1.49 1.42 1.38 1.27 1.33 1.43 1.41 1.40 1.25 1.12 1.04 1.01 1.15 1.25 1.25 1.13 1.08 1.12 1.14
0.32 0.37 0.51 0.55 0.55 0.52 0.52 0.61 0.72 0.87 1.08 1.32 1.39 1.45 1.49 1.51 1.55 1.59 1.63 1.73 1.77 1.76 1.70 1.64 1.63 1.58 1.42 1.51 1.52 1.43 1.42 1.53 1.50 1.36 1.25 1.10 1.03 1.04 1.10 1.16 1.18 1.17 1.15
0.49 0.49 0.61 0.69 0.75 0.73 0.71 0.80 0.90 1.08 1.28 1.38 1.39 1.43 1.51 1.57 1.59 1.62 1.67 1.68 1.71 1.69 1.64 1.65 1.68 1.64 1.63 1.53 1.35 1.24 1.21 1.26 1.32 1.34 1.27 1.06 0.96 1.01 0.99 1.12 1.16 1.11 1.05
0.64 0.64 0.69 0.73 0.74 0.78 0.82 0.90 0.97 1.03 1.22 1.29 1.27 1.25 1.28 1.30 1.34 1.44 1.50 1.51 1.52 1.50 1.48 1.47 1.39 1.34 1.30 1.26 1.10 1.05 1.04 1.05 1.03 1.11 1.19 1.12 1.02 0.97 0.95 0.90 0.84 0.82 0.83
0.60 0.65 0.72 0.71 0.71 0.76 0.82 0.81 0.86 0.92 1.03 1.07 1.09 1.05 1.09 1.14 1.20 1.27 1.36 1.43 1.42 1.30 1.20 1.14 1.12 1.12 1.15 1.23 1.05 0.97 0.96 0.99 0.92 0.92 0.94 0.95 0.86 0.84 0.76 0.73 0.66 0.63 0.63
0.51 0.61 0.73 0.73 0.70 0.71 0.73 0.73 0.77 0.83 0.93 1.03 1.09 1.07 1.06 1.12 1.16 1.23 1.27 1.28 1.27 1.23 1.20 1.13 1.09 1.08 1.09 1.17 1.01 0.93 0.93 0.96 0.92 0.91 0.95 1.02 0.88 0.74 0.59 0.59 0.62 0.56 0.52
0.52 0.57 0.67 0.78 0.76 0.76 0.79 0.81 0.80 0.81 0.87 0.96 1.01 1.02 1.00 1.01 1.05 1.11 1.11 1.17 1.20 1.18 1.12 1.05 1.03 1.06 1.06 1.04 0.89 0.79 0.76 0.80 0.81 0.77 0.78 0.88 0.84 0.67 0.52 0.52 0.55 0.50 0.48
0.39 0.52 0.62 0.70 0.75 0.82 0.88 0.88 0.82 0.82 0.85 0.95 0.98 0.95 0.95 0.93 0.92 0.92 0.92 0.97 1.00 0.99 0.97 0.97 0.97 1.02 1.01 0.88 0.75 0.64 0.60 0.63 0.66 0.75 0.76 0.85 0.86 0.68 0.57 0.50 0.47 0.40 0.35
0.34 0.40 0.49 0.60 0.63 0.73 0.83 0.90 0.90 0.89 0.86 0.90 0.94 0.93 0.93 0.95 0.97 0.98 0.98 0.98 0.98 0.97 0.95 0.90 0.83 0.82 0.85 0.84 0.68 0.53 0.47 0.51 0.58 0.79 0.99 1.01 0.94 0.79 0.65 0.58 0.55 0.44 0.37
0.42 0.46 0.52 0.53 0.54 0.59 0.68 0.78 0.85 0.88 0.91 0.89 0.83 0.80 0.81 0.82 0.87 0.96 1.01 1.03 1.02 0.98 0.92 0.86 0.82 0.82 0.83 0.82 0.77 0.66 0.57 0.58 0.64 0.82 1.01 1.11 1.13 1.04 0.91 0.82 0.73 0.57 0.52
0.50 0.52 0.54 0.53 0.53 0.56 0.60 0.68 0.76 0.80 0.82 0.85 0.83 0.80 0.77 0.77 0.81 0.86 0.90 0.88 0.89 0.88 0.84 0.79 0.78 0.80 0.82 0.81 0.75 0.67 0.61 0.59 0.63 0.75 1.00 1.19 1.32 1.34 1.29 1.15 1.03 0.89 0.78
0.58 0.56 0.57 0.57 0.59 0.62 0.65 0.64 0.70 0.81 0.88 0.88 0.82 0.79 0.75 0.74 0.74 0.75 0.81 0.88 0.80 0.79 0.74 0.71 0.65 0.62 0.65 0.66 0.57 0.52 0.51 0.51 0.56 0.68 0.92 1.15 1.34 1.41 1.50 1.48 1.36 1.17 0.99

GEFSMW_prec_meanprecacc_156.txt.gz
Total_Precipitation_Accumulation
1.83 2.14 2.53 2.87 3.08 3.24 3.33 3.62 3.80 3.48 2.95 2.46 1.92 1.62 1.47 1.27 1.12 1.02 0.90 0.89 0.82 0.83 0.82 0.69 0.73 0.63 0.62 0.65 0.69 0.79 0.82 0.80 0.80 1.08 1.29 1.12 0.89 0.87 0.78 0.77 0.88 0.94 0.97
1.38 1.48 1.70 2.02 2.11 2.32 2.63 2.98 3.21 3.04 2.47 2.18 1.89 1.69 1.53 1.36 1.28 1.18 1.00 0.83 0.79 0.77 0.69 0.76 0.64 0.62 0.67 0.69 0.70 0.77 0.80 0.73 0.71 0.94 1.21 1.12 1.18 1.12 0.64 0.72 0.82 0.88 1.02
1.02 1.01 1.10 1.26 1.57 2.04 2.19 2.23 2.46 2.64 2.35 2.19 2.06 1.88 1.72 1.47 1.38 1.28 1.08 0.83 0.74 0.73 0.72 0.67 0.66 0.76 0.60 0.73 0.83 0.81 0.79 0.77 0.69 0.69 0.89 0.97 0.98 0.93 0.83 0.71 0.70 0.78 0.97
0.69 0.83 0.84 0.90 1.10 1.42 1.70 1.94 2.17 2.31 2.21 2.07 1.85 1.63 1.39 1.20 1.09 1.06 1.05 0.98 0.87 0.77 0.75 0.67 0.71 0.79 0.68 0.85 0.68 0.69 0.77 0.77 0.67 0.63 0.54 0.57 0.69 0.80 0.89 0.81 0.68 0.71 0.80
0.38 0.55 0.67 0.75 0.78 0.98 1.36 1.77 2.08 2.28 2.15 1.84 1.66 1.61 1.47 1.34 1.24 1.13 1.20 1.08 1.01 0.89 0.79 0.76 0.77 0.73 0.68 0.74 0.75 0.88 0.79 0.76 0.71 0.63 0.56 0.60 0.56 0.52 0.63 0.78 0.80 0.78 0.61
0.26 0.35 0.42 0.51 0.64 0.78 1.02 1.29 1.58 1.84 1.86 1.69 1.58 1.56 1.53 1.49 1.35 1.11 1.05 0.99 0.95 0.93 0.90 0.91 0.87 0.79 0.70 0.70 0.71 0.79 0.82 0.86 0.91 0.76 0.63 0.65 0.61 0.54 0.57 0.54 0.55 0.65 0.54
0.21 0.31 0.37 0.34 0.46 0.56 0.66 0.81 1.09 1.31 1.44 1.50 1.49 1.43 1.50 1.50 1.35 1.18 1.06 1.01 0.87 0.83 0.84 0.85 0.91 0.85 0.82 0.80 0.79 0.77 0.77 0.84 0.88 0.77 0.66 0.59 0.51 0.53 0.57 0.59 0.49 0.47 0.43
0.16 0.25 0.34 0.31 0.32 0.38 0.51 0.64 0.85 1.02 1.13 1.19 1.27 1.28 1.26 1.20 1.22 1.27 1.14 1.03 0.95 0.89 0.85 0.85 0.82 0.81 0.82 0.82 0.93 0.78 0.71 0.76 0.75 0.70 0.78 0.71 0.49 0.49 0.56 0.61 0.65 0.65 0.61
0.23 0.24 0.30 0.30 0.25 0.29 0.38 0.45 0.62 0.76 0.86 0.96 1.08 1.09 1.11 1.05 1.06 1.08 1.04 0.98 1.01 0.99 0.92 0.85 0.83 0.86 0.87 0.88 0.92 0.85 0.84 0.84 0.74 0.69 0.77 0.71 0.58 0.52 0.45 0.55 0.67 0.83 0.84
0.30 0.30 0.27 0.32 0.28 0.27 0.33 0.38 0.47 0.60 0.70 0.81 0.89 0.89 1.02 1.03 1.13 1.10 1.01 0.94 0.89 0.88 0.92 0.90 0.83 0.87 0.91 0.96 0.98 0.95 1.01 1.06 0.95 0.83 0.83 0.78 0.70 0.70 0.56 0.54 0.66 0.80 0.90
0.28 0.31 0.30 0.29 0.25 0.24 0.26 0.29 0.40 0.52 0.61 0.72 0.78 0.85 0.90 0.95 1.01 1.06 1.05 1.00 0.94 0.91 0.92 0.90 0.85 0.83 0.86 0.92 0.95 0.93 1.05 1.18 1.22 1.07 0.96 0.90 0.86 0.87 0.76 0.75 0.79 0.83 0.96
0.18 0.22 0.24 0.22 0.19 0.22 0.23 0.24 0.29 0.37 0.45 0.63 0.77 0.81 0.90 0.95 0.94 0.96 1.12 1.13 1.08 1.05 1.05 1.03 1.01 0.94 0.88 0.92 0.90 0.84 0.89 1.06 1.25 1.41 1.43 1.25 1.12 1.08 0.96 0.95 0.93 0.92 0.98
0.19 0.26 0.28 0.26 0.21 0.21 0.23 0.26 0.30 0.36 0.41 0.54 0.67 0.77 0.86 0.95 1.00 1.05 1.17 1.26 1.25 1.25 1.27 1.27 1.21 1.15 1.12 1.08 1.04 0.98 0.95 0.99 1.08 1.27 1.45 1.44 1.44 1.27 1.19 1.12 1.04 0.99 0.94
0.20 0.24 0.35 0.35 0.26 0.21 0.25 0.28 0.34 0.40 0.50 0.66 0.78 0.85 0.99 1.11 1.17 1.14 1.22 1.29 1.36 1.41 1.44 1.45 1.38 1.30 1.26 1.25 1.23 1.19 1.17 1.16 1.15 1.15 1.19 1.27 1.43 1.36 1.29 1.23 1.16 1.13 1.12
0.25 0.31 0.39 0.43 0.40 0.35 0.33 0.37 0.47 0.57 0.73 0.93 1.00 1.01 1.08 1.16 1.24 1.34 1.42 1.52 1.58 1.60 1.69 1.63 1.54 1.48 1.45 1.35 1.41 1.51 1.49 1.49 1.35 1.22 1.14 1.11 1.24 1.32 1.32 1.20 1.15 1.20 1.22
0.33 0.37 0.51 0.55 0.56 0.52 0.53 0.62 0.72 0.87 1.09 1.33 1.40 1.46 1.51 1.52 1.57 1.61 1.66 1.77 1.81 1.82 1.76 1.70 1.69 1.65 1.50 1.60 1.61 1.51 1.51 1.63 1.61 1.47 1.37 1.23 1.14 1.14 1.19 1.23 1.26 1.24 1.22
0.50 0.50 0.62 0.69 0.76 0.74 0.71 0.80 0.90 1.09 1.28 1.40 1.40 1.44 1.53 1.59 1.62 1.66 1.71 1.73 1.75 1.74 1.68 1.71 1.75 1.72 1.73 1.66 1.45 1.31 1.27 1.33 1.41 1.45 1.41 1.21 1.10 1.13 1.09 1.21 1.26 1.19 1.12
0.64 0.64 0.70 0.74 0.75 0.79 0.83 0.90 0.97 1.03 1.23 1.32 1.31 1.28 1.31 1.34 1.40 1.51 1.56 1.55 1.56 1.54 1.52 1.52 1.45 1.41 1.38 1.36 1.19 1.12 1.09 1.11 1.09 1.18 1.26 1.22 1.12 1.07 1.03 0.97 0.91 0.88 0.89
0.60 0.65 0.73 0.71 0.71 0.77 0.83 0.83 0.88 0.93 1.04 1.10 1.12 1.08 1.12 1.18 1.27 1.33 1.40 1.45 1.44 1.32 1.22 1.17 1.16 1.15 1.19 1.29 1.12 1.04 1.02 1.05 0.98 0.97 0.99 0.99 0.90 0.88 0.81 0.77 0.69 0.66 0.66
0.51 0.61 0.74 0.74 0.72 0.74 0.75 0.75 0.79 0.85 0.95 1.06 1.12 1.10 1.10 1.16 1.21 1.26 1.30 1.30 1.28 1.24 1.21 1.15 1.11 1.09 1.10 1.20 1.05 0.99 0.98 1.01 0.96 0.94 0.98 1.04 0.90 0.76 0.61 0.61 0.64 0.57 0.54
0.53 0.58 0.69 0.80 0.80 0.80 0.82 0.85 0.84 0.84 0.90 0.98 1.03 1.04 1.03 1.04 1.08 1.14 1.13 1.19 1.23 1.20 1.14 1.07 1.05 1.08 1.07 1.06 0.92 0.83 0.79 0.83 0.83 0.79 0.80 0.89 0.86 0.69 0.54 0.54 0.56 0.51 0.49
0.41 0.55 0.66 0.75 0.81 0.87 0.94 0.94 0.88 0.86 0.89 0.98 1.01 0.98 0.98 0.96 0.96 0.95 0.96 1.00 1.03 1.02 1.00 0.99 0.99 1.04 1.03 0.91 0.79 0.68 0.64 0.66 0.69 0.78 0.79 0.88 0.89 0.71 0.59 0.51 0.48 0.41 0.36
0.39 0.45 0.55 0.66 0.70 0.80 0.89 0.96 0.95 0.94 0.91 0.95 1.00 0.97 0.97 0.99 1.02 1.04 1.04 1.03 1.02 1.01 0.98 0.93 0.86 0.85 0.88 0.88 0.73 0.58 0.52 0.55 0.61 0.82 1.03 1.04 0.98 0.82 0.67 0.60 0.56 0.44 0.37
0.49 0.53 0.58 0.60 0.61 0.66 0.75 0.85 0.93 0.96 0.99 0.97 0.92 0.89 0.90 0.90 0.94 1.04 1.07 1.08 1.07 1.03 0.96 0.91 0.86 0.85 0.87 0.86 0.80 0.70 0.61 0.62 0.68 0.85 1.04 1.14 1.16 1.06 0.93 0.83 0.74 0.57 0.52
0.57 0.60 0.65 0.62 0.60 0.63 0.69 0.77 0.85 0.90 0.92 0.95 0.93 0.92 0.89 0.87 0.90 0.95 0.97 0.94 0.95 0.94 0.89 0.84 0.84 0.84 0.86 0.85 0.80 0.72 0.66 0.64 0.68 0.80 1.03 1.22 1.34 1.36 1.31 1.17 1.04 0.91 0.80
0.66 0.64 0.67 0.68 0.66 0.69 0.74 0.73 0.79 0.90 0.98 0.97 0.91 0.87 0.83 0.81 0.82 0.83 0.88 0.95 0.85 0.85 0.80 0.77 0.70 0.67 0.70 0.70 0.61 0.55 0.54 0.55 0.60 0.73 0.95 1.19 1.38 1.44 1.53 1.51 1.40 1.21 1.04

GEFSMW_prec_meanprecacc_162.txt.gz
Total_Precipitation_Accumulation
1.85 2.15 2.53 2.88 3.08 3.24 3.34 3.62 3.82 3.50 2.98 2.53 1.99 1.71 1.56 1.36 1.20 1.09 0.97 0.96 0.88 0.91 0.91 0.76 0.83 0.73 0.73 0.76 0.80 0.90 0.93 0.89 0.87 1.16 1.38 1.18 0.93 0.91 0.82 0.81 0.92 0.98 1.00
1.38 1.48 1.70 2.03 2.11 2.33 2.64 2.99 3.22 3.06 2.50 2.22 1.96 1.77 1.62 1.44 1.35 1.25 1.08 0.92 0.86 0.85 0.77 0.88 0.75 0.74 0.81 0.82 0.82 0.90 0.90 0.82 0.79 1.06 1.33 1.22 1.25 1.16 0.66 0.74 0.84 0.91 1.06
1.02 1.01 1.10 1.27 1.57 2.04 2.19 2.23 2.47 2.66 2.39 2.22 2.12 1.97 1.82 1.57 1.49 1.41 1.21 0.92 0.81 0.80 0.80 0.77 0.76 0.88 0.72 0.87 0.99 0.95 0.93 0.90 0.80 0.80 1.02 1.08 1.09 1.02 0.88 0.73 0.71 0.80 0.99
0.69 0.83 0.85 0.90 1.10 1.43 1.70 1.94 2.18 2.33 2.24 2.12 1.89 1.69 1.47 1.31 1.24 1.24 1.25 1.10 0.95 0.83 0.81 0.76 0.81 0.89 0.76 0.98 0.80 0.80 0.91 0.92 0.79 0.73 0.64 0.66 0.80 0.92 0.99 0.87 0.70 0.73 0.82
0.38 0.55 0.67 0.75 0.79 0.98 1.37 1.78 2.09 2.30 2.18 1.88 1.70 1.66 1.53 1.43 1.35 1.27 1.34 1.20 1.10 0.96 0.84 0.83 0.86 0.82 0.76 0.83 0.87 1.01 0.93 0.88 0.82 0.74 0.66 0.69 0.65 0.60 0.71 0.85 0.86 0.83 0.65
0.26 0.35 0.42 0.52 0.66 0.79 1.02 1.29 1.60 1.86 1.88 1.72 1.62 1.61 1.59 1.55 1.41 1.19 1.14 1.06 1.03 1.00 0.96 0.98 0.96 0.87 0.78 0.80 0.83 0.93 0.94 0.99 1.03 0.88 0.73 0.74 0.68 0.61 0.65 0.63 0.64 0.72 0.59
0.21 0.31 0.37 0.35 0.48 0.57 0.66 0.81 1.10 1.33 1.47 1.52 1.52 1.48 1.56 1.56 1.40 1.23 1.13 1.08 0.93 0.89 0.91 0.94 1.01 0.94 0.91 0.88 0.90 0.89 0.87 0.94 0.99 0.88 0.76 0.69 0.59 0.62 0.67 0.70 0.59 0.56 0.47
0.16 0.25 0.34 0.34 0.35 0.39 0.51 0.64 0.85 1.03 1.14 1.21 1.31 1.32 1.31 1.24 1.25 1.30 1.18 1.07 1.01 0.94 0.92 0.94 0.92 0.91 0.92 0.90 1.04 0.88 0.81 0.86 0.85 0.79 0.88 0.81 0.57 0.57 0.66 0.73 0.78 0.76 0.68
0.23 0.24 0.30 0.33 0.26 0.30 0.38 0.45 0.62 0.76 0.86 0.98 1.11 1.13 1.15 1.08 1.09 1.10 1.08 1.01 1.07 1.06 0.98 0.91 0.89 0.92 0.95 0.98 1.04 0.95 0.93 0.95 0.84 0.78 0.87 0.81 0.67 0.61 0.56 0.68 0.83 0.98 0.95
0.30 0.30 0.27 0.32 0.28 0.27 0.33 0.38 0.47 0.60 0.70 0.82 0.90 0.90 1.05 1.05 1.15 1.13 1.04 0.96 0.92 0.92 0.95 0.94 0.87 0.92 0.98 1.05 1.08 1.06 1.12 1.19 1.06 0.94 0.94 0.88 0.79 0.80 0.66 0.64 0.77 0.93 1.04
0.28 0.31 0.30 0.29 0.25 0.24 0.26 0.29 0.40 0.52 0.61 0.72 0.79 0.86 0.91 0.96 1.02 1.06 1.06 1.03 0.98 0.95 0.95 0.93 0.89 0.90 0.94 0.99 1.03 1.02 1.15 1.27 1.31 1.15 1.06 1.01 0.97 0.97 0.86 0.86 0.90 0.94 1.07
0.18 0.22 0.24 0.22 0.19 0.22 0.23 0.24 0.29 0.37 0.45 0.63 0.77 0.81 0.90 0.96 0.95 0.97 1.14 1.15 1.11 1.08 1.08 1.06 1.05 0.99 0.94 0.98 0.97 0.91 0.97 1.14 1.32 1.49 1.52 1.34 1.22 1.17 1.06 1.06 1.04 1.02 1.08
0.20 0.26 0.29 0.27 0.21 0.21 0.24 0.27 0.30 0.36 0.41 0.54 0.67 0.78 0.87 0.95 1.00 1.07 1.19 1.30 1.28 1.27 1.29 1.31 1.26 1.21 1.18 1.14 1.09 1.05 1.03 1.07 1.17 1.37 1.55 1.54 1.56 1.38 1.31 1.24 1.16 1.10 1.05
0.20 0.24 0.36 0.35 0.26 0.22 0.26 0.29 0.34 0.40 0.50 0.66 0.78 0.85 1.00 1.12 1.18 1.16 1.24 1.31 1.39 1.44 1.48 1.51 1.44 1.37 1.32 1.30 1.29 1.27 1.25 1.24 1.26 1.28 1.32 1.42 1.58 1.50 1.44 1.35 1.28 1.24 1.22
0.25 0.31 0.40 0.44 0.40 0.35 0.33 0.37 0.47 0.57 0.74 0.94 1.00 1.01 1.09 1.17 1.25 1.36 1.43 1.54 1.61 1.63 1.74 1.70 1.59 1.54 1.52 1.41 1.47 1.58 1.58 1.59 1.44 1.31 1.24 1.21 1.35 1.43 1.43 1.29 1.25 1.31 1.35
0.33 0.38 0.51 0.56 0.56 0.53 0.53 0.62 0.72 0.88 1.09 1.33 1.41 1.47 1.52 1.53 1.58 1.62 1.68 1.79 1.84 1.84 1.79 1.74 1.73 1.70 1.56 1.68 1.69 1.59 1.60 1.72 1.70 1.57 1.47 1.33 1.24 1.25 1.30 1.34 1.37 1.37 1.36
0.50 0.50 0.62 0.70 0.76 0.74 0.72 0.80 0.91 1.10 1.29 1.40 1.40 1.45 1.53 1.60 1.62 1.67 1.72 1.74 1.77 1.76 1.70 1.74 1.78 1.75 1.78 1.73 1.54 1.40 1.38 1.43 1.50 1.54 1.51 1.31 1.19 1.25 1.21 1.36 1.40 1.33 1.26
0.65 0.64 0.70 0.74 0.75 0.80 0.83 0.90 0.98 1.04 1.24 1.33 1.31 1.29 1.32 1.35 1.41 1.53 1.58 1.57 1.57 1.56 1.53 1.54 1.48 1.44 1.43 1.43 1.26 1.21 1.18 1.18 1.15 1.23 1.32 1.27 1.18 1.15 1.15 1.09 1.01 0.97 0.98
0.60 0.65 0.73 0.72 0.72 0.77 0.83 0.83 0.88 0.94 1.05 1.11 1.13 1.10 1.14 1.21 1.30 1.38 1.43 1.48 1.46 1.34 1.24 1.18 1.19 1.19 1.24 1.34 1.18 1.13 1.11 1.14 1.05 1.03 1.05 1.04 0.96 0.96 0.89 0.84 0.75 0.71 0.72
0.51 0.61 0.74 0.75 0.73 0.75 0.76 0.76 0.80 0.87 0.98 1.09 1.15 1.14 1.15 1.23 1.28 1.33 1.34 1.33 1.30 1.25 1.23 1.16 1.12 1.11 1.13 1.23 1.08 1.03 1.03 1.07 1.04 1.02 1.06 1.12 0.96 0.83 0.67 0.65 0.67 0.60 0.57
0.53 0.59 0.70 0.82 0.81 0.82 0.84 0.87 0.86 0.88 0.95 1.03 1.08 1.09 1.11 1.13 1.17 1.22 1.19 1.23 1.24 1.22 1.16 1.09 1.07 1.10 1.09 1.08 0.94 0.85 0.82 0.86 0.87 0.82 0.83 0.94 0.92 0.74 0.59 0.58 0.60 0.55 0.53
0.42 0.56 0.67 0.76 0.84 0.91 0.99 1.01 0.95 0.92 0.96 1.06 1.10 1.08 1.08 1.07 1.03 1.00 0.99 1.02 1.05 1.03 1.02 1.01 1.01 1.06 1.06 0.94 0.82 0.71 0.66 0.69 0.71 0.81 0.82 0.92 0.94 0.75 0.63 0.54 0.51 0.45 0.39
0.40 0.46 0.56 0.69 0.74 0.85 0.95 1.03 1.04 1.03 1.00 1.03 1.08 1.07 1.06 1.06 1.07 1.08 1.07 1.06 1.05 1.04 1.01 0.96 0.89 0.90 0.94 0.94 0.78 0.62 0.54 0.58 0.64 0.85 1.06 1.08 1.02 0.86 0.71 0.64 0.61 0.49 0.41
0.50 0.54 0.61 0.64 0.65 0.71 0.80 0.91 1.00 1.04 1.08 1.07 1.02 0.98 0.98 0.97 1.00 1.08 1.11 1.11 1.10 1.06 1.00 0.94 0.90 0.90 0.92 0.91 0.85 0.75 0.66 0.67 0.72 0.88 1.07 1.17 1.19 1.09 0.95 0.86 0.77 0.60 0.56
0.59 0.62 0.67 0.66 0.65 0.68 0.74 0.83 0.92 0.95 0.98 1.00 0.99 0.97 0.93 0.91 0.94 0.99 1.02 0.98 0.98 0.98 0.93 0.87 0.86 0.86 0.88 0.88 0.84 0.75 0.69 0.66 0.69 0.81 1.04 1.23 1.36 1.38 1.33 1.20 1.07 0.94 0.83
0.69 0.67 0.70 0.72 0.72 0.76 0.80 0.80 0.87 0.98 1.05 1.04 0.97 0.93 0.88 0.85 0.86 0.87 0.92 0.99 0.89 0.90 0.84 0.80 0.74 0.70 0.73 0.73 0.64 0.58 0.56 0.57 0.62 0.74 0.97 1.20 1.39 1.46 1.55 1.53 1.42 1.23 1.07